Observation Tools

Northern red oak Photo courtesy of Steve Baskauf, Vanderbilt University, bioimages.vanderbilt.edu.

Northern red oak (Quercus rubra)


Plant Family: Beech (Fagaceae)
Project BudBurst Plant Group: Deciduous Trees and Shrubs

Identification Hints: Northern red oak trees are foundthroughout the eastern United States, as far west as Kansas and as far south asGeorgia. These trees can grow to up to 140 feet tall. The leaves of Northern red oaks have 7-9 pointed lobes with v-shaped sinuses (the indented part between the lobes). The bark of the Northern red oak is distinctive. It has dark red to grey-brown ridges with what appear to be shiny stripes down each ridge.

Did you Know? These trees have separate male and female flowers that appear in the form of catkins. Both male and female flowers can be found on the same tree. Acorns develop after the flowers have been pollinated but do not reach maturity (ripening) until the second year. Northern red oaks have been used in many revegetation projects following coal mining. The lumber from Northern red oaks is also commonly used in furniture making.


Live Map for Northern red oak

Other years available for viewing:

Below you can view all observations that have been reported in for Northern red oak (If the map below is empty then there have not been any observations reported.)

Use the navigation buttons on the left to zoom in/out and pan around. Click on each place marker to get detail information about that observation.

Leaf/Needles/Stalk = Leaf/Needles/Stalk Flower = Flower Pollen = Pollen Fruiting = Fruiting Color = Color

--Back to Top--

close help window button

The table below displays all the data that has been submitted to Project BudBurst. By default, the data is sorted by the date on which the phenophase occurred. Clicking the up and down arrows next to each column name allows you to sort on any value. If there have been more than 10 observations submitted, you can choose how many to display at a time using the "Show __ entries" control. You can also page through the data using the previous and next buttons at the bottom right of the table.

The Search box allows you to search all of the data. Searching by date, species, phenophase, etc. is easy—just start typing and the table will immediately change to contain only observations that contain your search phrase. Do you want to see only 2012 observations? Just type "2012" in the search box. Only want to see maples? Enter "Acer." You can combine searches, too! Searching for "acer 2012" will narrow your results to only the maples that were observed in 2012 (assuming that any observations exist, of course).

Once you have your results in the order desired, you can use any of the buttons above the search box to copy the results to the clipboard; save them as a text, or spreadsheet; or even print them from your browser!

Observational data for Northern red oak:

help button
Date Contributor Common Name Species Phenophase Latitude Longitude Obs#
Fri Sep 23 00:00:00 GMT 2011 cwoodward Northern red oak Quercus rubra Leaves Changing Color (Early) 43.187000000000000 -89.457000000000000 13378
Mon Oct 10 00:00:00 GMT 2011 palaback Northern red oak Quercus rubra Leaves Changing Color (Early) 43.402500000000000 -72.071700000000000 13538
Mon Oct 10 00:00:00 GMT 2011 palaback Northern red oak Quercus rubra Leaves Changing Color (Early) 43.000000000000000 -72.095800000000000 13542
Tue Oct 11 00:00:00 GMT 2011 palaback Northern red oak Quercus rubra Leaves Changing Color (Early) 43.351200000000000 -72.040300000000000 13613
Tue Oct 11 00:00:00 GMT 2011 palaback Northern red oak Quercus rubra Leaves Dropping (Early) 43.351200000000000 -72.040300000000000 13614
Tue Oct 11 00:00:00 GMT 2011 palaback Northern red oak Quercus rubra Leaves Changing Color (Early) 43.301600000000000 -71.866300000000000 13628
Thu Oct 13 00:00:00 GMT 2011 palaback Northern red oak Quercus rubra Leaves Changing Color (Middle) 43.363500000000000 -72.094500000000000 13681
Thu Nov 03 00:00:00 GMT 2011 palaback Northern red oak Quercus rubra Leaves Changing Color (Middle) 39.732100000000000 -104.960000000000000 13800
Wed Mar 21 00:00:00 GMT 2012 Sassafras Northern red oak Quercus rubra Leaves Unfolding (Middle) 38.113000000000000 -76.253100000000000 14377
Tue Sep 04 00:00:00 GMT 2012 ssshah18 Northern red oak Quercus rubra Leaves Changing Color (Early) 42.599800000000000 -83.098300000000000 16447
Tue Sep 04 00:00:00 GMT 2012 BmasterB Northern red oak Quercus rubra Leaves Changing Color (Early) 42.604800000000000 -83.097300000000000 16491
Tue Sep 04 00:00:00 GMT 2012 Nabiha Northern red oak Quercus rubra Leaves Changing Color (Early) 42.609200000000000 -83.105500000000000 16506
Wed Oct 10 00:00:00 GMT 2012 bandjnewman Northern red oak Quercus rubra Leaves Dropping (Early) 46.810800000000000 -90.818200000000000 17031
Mon Nov 26 00:00:00 GMT 2012 shriyasparkles Northern red oak Quercus rubra Leaves Changing Color (Late) 42.599800000000000 -83.098300000000000 17564
Fri Nov 09 00:00:00 GMT 2012 krakerjak Northern red oak Quercus rubra Leaves Changing Color (Early) 41.892300000000000 -72.912700000000000 17594
Fri Nov 16 00:00:00 GMT 2012 krakerjak Northern red oak Quercus rubra Leaves Changing Color (Late) 41.892300000000000 -72.912700000000000 17595
Fri Nov 16 00:00:00 GMT 2012 krakerjak Northern red oak Quercus rubra Leaves Dropping (Late) 41.892300000000000 -72.912700000000000 17596
Fri Nov 16 00:00:00 GMT 2012 krakerjak Northern red oak Quercus rubra Leaves Dropping (Early) 41.892300000000000 -72.912700000000000 17597
Sun Dec 09 00:00:00 GMT 2012 krakerjak Northern red oak Quercus rubra Leaves Changing Color (Early) 41.892300000000000 -72.912700000000000 17593
Sun Oct 28 00:00:00 GMT 2012 aliciast. sauveur26 Northern red oak Quercus rubra Leaves Dropping (Late) 41.912200000000000 -73.036900000000000 17616
Tue Oct 16 00:00:00 GMT 2012 aliciast. sauveur26 Northern red oak Quercus rubra Leaves Changing Color (Middle) 41.912200000000000 -73.036900000000000 17614
Wed Oct 24 00:00:00 GMT 2012 aliciast. sauveur26 Northern red oak Quercus rubra Leaves Changing Color (Late) 41.912200000000000 -73.036900000000000 17615
Thu Oct 04 00:00:00 GMT 2012 aliciast. sauveur26 Northern red oak Quercus rubra Leaves Dropping (Early) 41.912200000000000 -73.036900000000000 17613
Sun Sep 30 00:00:00 GMT 2012 aliciast. sauveur26 Northern red oak Quercus rubra Leaves Changing Color (Early) 41.912200000000000 -73.036900000000000 17612
Sat Dec 22 00:00:00 GMT 2012 clarali Northern red oak Quercus rubra Leaves Dropping (Middle) 41.395800000000000 -72.897200000000000 17626
Thu Jan 24 00:00:00 GMT 2013 nacielr Northern red oak Quercus rubra 50% Leaf Fall 39.156200000000000 -86.525000000000000 17822
Tue Apr 07 00:00:00 GMT 2009 gmwimp Northern red oak Quercus rubra Bud Burst 38.908400000000000 -77.072500000000000 18041
Fri Feb 22 00:00:00 GMT 2013 LakeDance Northern red oak Quercus rubra Leaves Dropping (Late) 42.026100000000000 -87.686400000000000 18071
Mon Feb 18 00:00:00 GMT 2013 mziche1 Northern red oak Quercus rubra Bud Burst 39.392900000000000 -76.608100000000000 18116
Sun Dec 23 00:00:00 GMT 2012 Clara Li Northern red oak Quercus rubra 50% Leaf Fall 41.336700000000000 -72.919800000000000 18160
Thu Mar 21 00:00:00 GMT 2013 DCub_CP_reporter14 Northern red oak Quercus rubra Bud Burst 39.946100000000000 -75.209100000000000 18226
Sat Mar 23 00:00:00 GMT 2013 jcro Northern red oak Quercus rubra Leaves Dropping (Middle) 42.298500000000000 -83.716900000000000 18324
Sat Mar 23 00:00:00 GMT 2013 jcro Northern red oak Quercus rubra Leaves Dropping (Middle) 42.298500000000000 -83.716900000000000 18325
Sun Mar 24 00:00:00 GMT 2013 pkarkos Northern red oak Quercus rubra 50% Leaf Fall 42.281600000000000 -83.721900000000000 18310
Wed Apr 03 00:00:00 GMT 2013 muziguo Northern red oak Quercus rubra Leaves Unfolding (Early) 39.165300000000000 -86.526400000000000 18482
Wed Apr 03 00:00:00 GMT 2013 harpmadison Northern red oak Quercus rubra Leaves Unfolding (Early) 39.170800000000000 -86.509000000000000 18560
Fri Mar 29 00:00:00 GMT 2013 ncesnik Northern red oak Quercus rubra Bud Burst 39.172700000000000 -86.529400000000000 18573
Thu Jan 24 00:00:00 GMT 2013 samivy333 Northern red oak Quercus rubra Bud Burst 39.167300000000000 -86.519500000000000 18749
Tue Apr 02 00:00:00 GMT 2013 samivy333 Northern red oak Quercus rubra First Leaf 39.167300000000000 -86.519500000000000 18750
Thu Apr 11 00:00:00 GMT 2013 ncmns Northern red oak Quercus rubra Leaves Unfolding (Middle) 35.782800000000000 -78.639300000000000 18793
Wed Apr 24 00:00:00 GMT 2013 rcholnoky Northern red oak Quercus rubra First Leaf 41.747100000000000 -72.690400000000000 19250
Sun Apr 28 00:00:00 GMT 2013 rcholnoky Northern red oak Quercus rubra All Leaves Unfolded 41.747100000000000 -72.690400000000000 19251
Wed Apr 24 00:00:00 GMT 2013 rcholnoky Northern red oak Quercus rubra First Flower 41.747100000000000 -72.690400000000000 19252
Sun Apr 28 00:00:00 GMT 2013 rcholnoky Northern red oak Quercus rubra Full Flower 41.747100000000000 -72.690400000000000 19253
Thu Apr 25 00:00:00 GMT 2013 Clara Li Northern red oak Quercus rubra First Flower 41.336700000000000 -72.919800000000000 19295
Wed May 01 00:00:00 GMT 2013 LakeDance Northern red oak Quercus rubra Bud Burst 42.034400000000000 -87.693000000000000 19470
Mon Apr 29 00:00:00 GMT 2013 SalladeScience_SRHS_Outdoor_Classroom_reporter4 Northern red oak Quercus rubra Bud Burst 42.912300000000000 -71.069700000000000 19497
Tue Apr 30 00:00:00 GMT 2013 SalladeScience_SRHS_Outdoor_Classroom_reporter4 Northern red oak Quercus rubra First Leaf 42.912300000000000 -71.069700000000000 19498
Mon Apr 01 00:00:00 GMT 2013 dj4592 Northern red oak Quercus rubra Bud Burst 41.000000000000000 -72.000000000000000 20108
Mon Apr 08 00:00:00 GMT 2013 dj4592 Northern red oak Quercus rubra First Leaf 41.000000000000000 -72.000000000000000 20109
Wed Apr 17 00:00:00 GMT 2013 dj4592 Northern red oak Quercus rubra All Leaves Unfolded 41.000000000000000 -72.000000000000000 20110
Thu Apr 25 00:00:00 GMT 2013 dj4592 Northern red oak Quercus rubra First Flower 41.000000000000000 -72.000000000000000 20111
Thu Mar 28 00:00:00 GMT 2013 mziche1 Northern red oak Quercus rubra Bud Burst 39.392600000000000 -76.607700000000000 20261
Mon Apr 15 00:00:00 GMT 2013 mziche1 Northern red oak Quercus rubra First Leaf 39.392600000000000 -76.607700000000000 20262
Thu Apr 25 00:00:00 GMT 2013 mziche1 Northern red oak Quercus rubra All Leaves Unfolded 39.392600000000000 -76.607700000000000 20263
Thu Mar 28 00:00:00 GMT 2013 mziche1 Northern red oak Quercus rubra 50% Color 39.392600000000000 -76.607700000000000 20264
Thu Mar 28 00:00:00 GMT 2013 mziche1 Northern red oak Quercus rubra Bud Burst 39.392600000000000 -76.607700000000000 20257
Mon Apr 15 00:00:00 GMT 2013 mziche1 Northern red oak Quercus rubra First Leaf 39.392600000000000 -76.607700000000000 20258
Thu Apr 25 00:00:00 GMT 2013 mziche1 Northern red oak Quercus rubra All Leaves Unfolded 39.392600000000000 -76.607700000000000 20259
Thu Mar 28 00:00:00 GMT 2013 mziche1 Northern red oak Quercus rubra 50% Color 39.392600000000000 -76.607700000000000 20260
Thu May 16 00:00:00 GMT 2013 ROSscience Northern red oak Quercus rubra Leaves Unfolding (Late) 40.814700000000000 -74.482500000000000 20454
Wed Apr 24 00:00:00 GMT 2013 ReaganB15 Northern red oak Quercus rubra Leaves Unfolding (Late) 38.739100000000000 -77.242800000000000 20785
Tue May 07 00:00:00 GMT 2013 SalladeScience_SRHS_Outdoor_Classroom_reporter4 Northern red oak Quercus rubra First Flower 42.912300000000000 -71.069700000000000 20962
Thu Apr 25 00:00:00 GMT 2013 mpgooley Northern red oak Quercus rubra Bud Burst 42.358800000000000 -71.250500000000000 21692
Fri Oct 11 00:00:00 GMT 2013 amcricket Northern red oak Quercus rubra Leaves Changing Color (Middle) 40.308200000000000 -74.873100000000000 22551
Tue Oct 15 00:00:00 GMT 2013 cnoblit Northern red oak Quercus rubra Fruit (Late) 42.196200000000000 -72.652500000000000 22711
Thu Oct 31 00:00:00 GMT 2013 amcricket Northern red oak Quercus rubra Leaves Changing Color (Late) 40.113300000000000 -74.863300000000000 22890
Thu Oct 31 00:00:00 GMT 2013 amcricket Northern red oak Quercus rubra Leaves Dropping (Middle) 40.113300000000000 -74.863300000000000 22891
Thu Oct 31 00:00:00 GMT 2013 rebeccakurson Northern red oak Quercus rubra 50% Color 40.777300000000000 -74.252300000000000 22846
Wed Sep 04 00:00:00 GMT 2013 marcepat Northern red oak Quercus rubra All Leaves Unfolded 39.184900000000000 -86.517400000000000 23030
Sun Oct 27 00:00:00 GMT 2013 marcepat Northern red oak Quercus rubra 50% Color 39.184900000000000 -86.517400000000000 23031
Wed Nov 06 00:00:00 GMT 2013 marcepat Northern red oak Quercus rubra 50% Leaf Fall 39.184900000000000 -86.517400000000000 23032
Fri Nov 08 00:00:00 GMT 2013 dancyn2005 Northern red oak Quercus rubra Leaves Changing Color (Late) 36.823100000000000 -84.945100000000000 23021
Fri Oct 25 00:00:00 GMT 2013 jtammyb Northern red oak Quercus rubra 50% Color 39.521400000000000 -86.471800000000000 23167
Tue Nov 12 00:00:00 GMT 2013 jtammyb Northern red oak Quercus rubra 50% Leaf Fall 39.521400000000000 -86.471800000000000 23168
Tue Nov 05 00:00:00 GMT 2013 Bethbiology Northern red oak Quercus rubra 50% Color 39.167000000000000 -86.523800000000000 23228
Sun Sep 22 00:00:00 GMT 2013 Tjharnish91 Northern red oak Quercus rubra 50% Color 39.173800000000000 -86.532500000000000 23291
Mon Oct 21 00:00:00 GMT 2013 Tjharnish91 Northern red oak Quercus rubra 50% Leaf Fall 39.173800000000000 -86.532500000000000 23292
Wed Sep 04 00:00:00 GMT 2013 emmehren Northern red oak Quercus rubra Bud Burst 39.165300000000000 -86.526400000000000 23531
Wed Nov 06 00:00:00 GMT 2013 emmehren Northern red oak Quercus rubra 50% Color 39.165300000000000 -86.526400000000000 23532
Wed Nov 06 00:00:00 GMT 2013 emmehren Northern red oak Quercus rubra 50% Leaf Fall 39.165300000000000 -86.526400000000000 23533
Tue Oct 29 00:00:00 GMT 2013 AmyEsparza Northern red oak Quercus rubra 50% Color 39.167700000000000 -86.511900000000000 23623
Tue Nov 05 00:00:00 GMT 2013 AmyEsparza Northern red oak Quercus rubra 50% Leaf Fall 39.167700000000000 -86.511900000000000 23624
Wed Oct 09 00:00:00 GMT 2013 UCSF_137_F13_Loyola_University_Chicago_reporter164 Northern red oak Quercus rubra Leaves Changing Color (Early) 41.999700000000000 -87.657200000000000 23808
Thu Oct 31 00:00:00 GMT 2013 UCSF_137_F13_Loyola_University_Chicago_reporter164 Northern red oak Quercus rubra Leaves Dropping (Late) 41.999700000000000 -87.657200000000000 23814
Thu Oct 31 00:00:00 GMT 2013 UCSF_137_F13_Loyola_University_Chicago_reporter164 Northern red oak Quercus rubra Leaves Changing Color (Late) 41.999700000000000 -87.657200000000000 23813
Wed Oct 23 00:00:00 GMT 2013 UCSF_137_F13_Loyola_University_Chicago_reporter164 Northern red oak Quercus rubra Leaves Dropping (Middle) 41.999700000000000 -87.657200000000000 23812
Wed Oct 23 00:00:00 GMT 2013 UCSF_137_F13_Loyola_University_Chicago_reporter164 Northern red oak Quercus rubra Leaves Changing Color (Middle) 41.999700000000000 -87.657200000000000 23811
Wed Oct 09 00:00:00 GMT 2013 UCSF_137_F13_Loyola_University_Chicago_reporter164 Northern red oak Quercus rubra Leaves Dropping (Early) 41.999700000000000 -87.657200000000000 23810
Thu Oct 31 00:00:00 GMT 2013 UCSF_137_F13_Loyola_University_Chicago_reporter110 Northern red oak Quercus rubra Leaves Dropping (Early) 41.999900000000000 -87.657000000000000 23826
Thu Oct 31 00:00:00 GMT 2013 UCSF_137_F13_Loyola_University_Chicago_reporter110 Northern red oak Quercus rubra Leaves Changing Color (Early) 41.999900000000000 -87.657000000000000 23824
Thu Oct 24 00:00:00 GMT 2013 UCSF_137_F13_Loyola_University_Chicago_reporter110 Northern red oak Quercus rubra Leaves Changing Color (Middle) 41.999900000000000 -87.657000000000000 23825
Mon Nov 18 00:00:00 GMT 2013 UCSF_137_F13_Loyola_University_Chicago_reporter110 Northern red oak Quercus rubra Leaves Dropping (Late) 41.999900000000000 -87.657000000000000 23827
Wed Nov 20 00:00:00 GMT 2013 UCSF_137_F13_Loyola_University_Chicago_reporter96 Northern red oak Quercus rubra Leaves Changing Color (Late) 41.999700000000000 -87.656800000000000 23727
Tue Oct 08 00:00:00 GMT 2013 UCSF_137_F13_Loyola_University_Chicago_reporter150 Northern red oak Quercus rubra Leaves Changing Color (Early) 41.998500000000000 -87.657000000000000 23845
Tue Oct 22 00:00:00 GMT 2013 UCSF_137_F13_Loyola_University_Chicago_reporter96 Northern red oak Quercus rubra Leaves Unfolding (Middle) 41.999700000000000 -87.656800000000000 23723
Wed Oct 09 00:00:00 GMT 2013 UCSF_137_F13_Loyola_University_Chicago_reporter96 Northern red oak Quercus rubra Leaves Changing Color (Early) 41.999700000000000 -87.656800000000000 23722
Tue Oct 22 00:00:00 GMT 2013 UCSF_137_F13_Loyola_University_Chicago_reporter96 Northern red oak Quercus rubra Leaves Dropping (Early) 41.999700000000000 -87.656800000000000 23725
Wed Oct 09 00:00:00 GMT 2013 UCSF_137_F13_Loyola_University_Chicago_reporter96 Northern red oak Quercus rubra Leaves Unfolding (Early) 41.999700000000000 -87.656800000000000 23721
Wed Nov 20 00:00:00 GMT 2013 UCSF_137_F13_Loyola_University_Chicago_reporter96 Northern red oak Quercus rubra Leaves Changing Color (Middle) 41.999700000000000 -87.656800000000000 23724
Wed Nov 20 00:00:00 GMT 2013 UCSF_137_F13_Loyola_University_Chicago_reporter96 Northern red oak Quercus rubra Leaves Changing Color (Late) 41.999700000000000 -87.656800000000000 23726
Wed Oct 09 00:00:00 GMT 2013 UCSF_137_F13_Loyola_University_Chicago_reporter96 Northern red oak Quercus rubra Fruit (Early) 41.999700000000000 -87.656800000000000 23720
Sun Nov 17 00:00:00 GMT 2013 UCSF_137_F13_Loyola_University_Chicago_reporter124 Northern red oak Quercus rubra Leaves Dropping (Late) 42.001300000000000 -87.660200000000000 23973
Mon Oct 21 00:00:00 GMT 2013 UCSF_137_F13_Loyola_University_Chicago_reporter124 Northern red oak Quercus rubra Leaves Changing Color (Middle) 42.001300000000000 -87.660200000000000 23970
Tue Oct 29 00:00:00 GMT 2013 UCSF_137_F13_Loyola_University_Chicago_reporter124 Northern red oak Quercus rubra Leaves Dropping (Early) 42.001300000000000 -87.660200000000000 23972
Tue Oct 29 00:00:00 GMT 2013 UCSF_137_F13_Loyola_University_Chicago_reporter124 Northern red oak Quercus rubra Leaves Changing Color (Early) 42.001300000000000 -87.660200000000000 23971
Wed Nov 20 00:00:00 GMT 2013 UCSF_137_F13_Loyola_University_Chicago_reporter96 Northern red oak Quercus rubra Leaves Dropping (Late) 41.999700000000000 -87.656800000000000 23882
Thu Nov 21 00:00:00 GMT 2013 UCSF_137_F13_Loyola_University_Chicago_reporter96 Northern red oak Quercus rubra Leaves Changing Color (Late) 41.999700000000000 -87.656800000000000 23885
Tue Oct 22 00:00:00 GMT 2013 UCSF_137_F13_Loyola_University_Chicago_reporter96 Northern red oak Quercus rubra Leaves Changing Color (Middle) 41.999700000000000 -87.656800000000000 23887
Wed Nov 20 00:00:00 GMT 2013 UCSF_137_F13_Loyola_University_Chicago_reporter96 Northern red oak Quercus rubra Leaves Changing Color (Late) 41.999700000000000 -87.656800000000000 23886
Tue Oct 08 00:00:00 GMT 2013 UCSF_137_F13_Loyola_University_Chicago_reporter150 Northern red oak Quercus rubra Leaves Unfolding (Early) 41.998600000000000 -87.656600000000000 24010
Thu Oct 31 00:00:00 GMT 2013 UCSF_137_F13_Loyola_University_Chicago_reporter150 Northern red oak Quercus rubra Leaves Unfolding (Late) 41.998600000000000 -87.656600000000000 24011
Wed Nov 20 00:00:00 GMT 2013 UCSF_137_F13_Loyola_University_Chicago_reporter150 Northern red oak Quercus rubra Leaves Dropping (Late) 41.998600000000000 -87.656600000000000 24012
Wed Oct 23 00:00:00 GMT 2013 UCSF_137_F13_Loyola_University_Chicago_reporter150 Northern red oak Quercus rubra Leaves Changing Color (Middle) 41.998600000000000 -87.656600000000000 24008
Thu Oct 31 00:00:00 GMT 2013 UCSF_137_F13_Loyola_University_Chicago_reporter150 Northern red oak Quercus rubra Leaves Changing Color (Late) 41.998600000000000 -87.656600000000000 24009
Thu Oct 10 00:00:00 GMT 2013 UCSF_137_F13_Loyola_University_Chicago_reporter110 Northern red oak Quercus rubra Leaves Changing Color (Early) 41.999800000000000 -87.656700000000000 24031
Fri Nov 01 00:00:00 GMT 2013 sinthang_Harding_High_School_reporter30 Northern red oak Quercus rubra 50% Color 44.956800000000000 -93.035300000000000 24639
Fri Nov 08 00:00:00 GMT 2013 sinthang_Harding_High_School_reporter30 Northern red oak Quercus rubra 50% Leaf Fall 44.956800000000000 -93.035300000000000 24640
Fri Nov 01 00:00:00 GMT 2013 sinthang_Harding_High_School_reporter45 Northern red oak Quercus rubra 50% Color 44.956800000000000 -93.035300000000000 24641
Fri Nov 08 00:00:00 GMT 2013 sinthang_Harding_High_School_reporter45 Northern red oak Quercus rubra 50% Leaf Fall 44.956800000000000 -93.035300000000000 24642
Fri Nov 01 00:00:00 GMT 2013 sinthang_Harding_High_School_reporter46 Northern red oak Quercus rubra 50% Color 44.956800000000000 -93.035300000000000 24646
Fri Nov 08 00:00:00 GMT 2013 sinthang_Harding_High_School_reporter46 Northern red oak Quercus rubra 50% Leaf Fall 44.956800000000000 -93.035300000000000 24647
Fri Nov 01 00:00:00 GMT 2013 sinthang_Harding_High_School_reporter31 Northern red oak Quercus rubra 50% Color 44.956800000000000 -93.035300000000000 24643
Fri Nov 08 00:00:00 GMT 2013 sinthang_Harding_High_School_reporter31 Northern red oak Quercus rubra 50% Leaf Fall 44.956800000000000 -93.035300000000000 24644
Fri Nov 01 00:00:00 GMT 2013 sinthang_Harding_High_School_reporter32 Northern red oak Quercus rubra 50% Color 44.956800000000000 -93.035300000000000 24633
Fri Nov 08 00:00:00 GMT 2013 sinthang_Harding_High_School_reporter32 Northern red oak Quercus rubra 50% Leaf Fall 44.956800000000000 -93.035300000000000 24634
Fri Nov 01 00:00:00 GMT 2013 sinthang_Harding_High_School_reporter36 Northern red oak Quercus rubra 50% Color 44.956800000000000 -93.035300000000000 24637
Fri Nov 22 00:00:00 GMT 2013 sinthang_Harding_High_School_reporter36 Northern red oak Quercus rubra 50% Leaf Fall 44.956800000000000 -93.035300000000000 24638
Wed Nov 06 00:00:00 GMT 2013 lakekatherine Northern red oak Quercus rubra Leaves Unfolding (None) 41.677000000000000 -87.801600000000000 24951
Wed Nov 06 00:00:00 GMT 2013 lakekatherine Northern red oak Quercus rubra Leaves Changing Color (Late) 41.677000000000000 -87.801600000000000 24952
Wed Nov 06 00:00:00 GMT 2013 lakekatherine Northern red oak Quercus rubra Leaves Dropping (Early) 41.677000000000000 -87.801600000000000 24953
Wed Nov 06 00:00:00 GMT 2013 lakekatherine Northern red oak Quercus rubra Flowers (None) 41.677000000000000 -87.801600000000000 24954
Wed Nov 06 00:00:00 GMT 2013 lakekatherine Northern red oak Quercus rubra Fruit (None) 41.677000000000000 -87.801600000000000 24955
Mon Mar 31 00:00:00 GMT 2014 audstuck Northern red oak Quercus rubra Bud Burst 39.165915000000000 -86.520317000000000 28865
Fri May 02 00:00:00 GMT 2014 mpgooley Northern red oak Quercus rubra Bud Burst 42.358800000000000 -71.250500000000000 31459
Wed Apr 30 00:00:00 GMT 2014 laurob_St._John's_University__reporter6 Northern red oak Quercus rubra Bud Burst 40.721400000000000 -73.793200000000000 31668
Thu May 01 00:00:00 GMT 2014 laurob_St._John's_University__reporter6 Northern red oak Quercus rubra First Leaf 40.721400000000000 -73.793200000000000 31669
Wed May 07 00:00:00 GMT 2014 laurob_St._John's_University__reporter6 Northern red oak Quercus rubra All Leaves Unfolded 40.721400000000000 -73.793200000000000 31670
Thu May 01 00:00:00 GMT 2014 laurob_St._John's_University__reporter6 Northern red oak Quercus rubra First Flower 40.721400000000000 -73.793200000000000 31671
Tue Mar 18 00:00:00 GMT 2014 laurob_St._John's_University__reporter6 Northern red oak Quercus rubra Leaves Unfolding (None) 40.430870000000000 -73.478460000000000 31784
Tue Mar 18 00:00:00 GMT 2014 laurob_St._John's_University__reporter6 Northern red oak Quercus rubra Leaves Unfolding (None) 40.430870000000000 -73.478460000000000 31785
Tue Mar 18 00:00:00 GMT 2014 laurob_St._John's_University__reporter6 Northern red oak Quercus rubra Leaves Changing Color (None) 40.430870000000000 -73.478460000000000 31786
Tue Mar 18 00:00:00 GMT 2014 laurob_St._John's_University__reporter6 Northern red oak Quercus rubra Leaves Changing Color (None) 40.430870000000000 -73.478460000000000 31787
Tue Mar 18 00:00:00 GMT 2014 laurob_St._John's_University__reporter6 Northern red oak Quercus rubra Leaves Dropping (None) 40.430870000000000 -73.478460000000000 31788
Tue Mar 18 00:00:00 GMT 2014 laurob_St._John's_University__reporter6 Northern red oak Quercus rubra Leaves Dropping (None) 40.430870000000000 -73.478460000000000 31789
Tue Mar 18 00:00:00 GMT 2014 laurob_St._John's_University__reporter6 Northern red oak Quercus rubra Flowers (None) 40.430870000000000 -73.478460000000000 31790
Tue Mar 18 00:00:00 GMT 2014 laurob_St._John's_University__reporter6 Northern red oak Quercus rubra Fruit (None) 40.430870000000000 -73.478460000000000 31791
Tue Mar 18 00:00:00 GMT 2014 laurob_St._John's_University__reporter6 Northern red oak Quercus rubra Flowers (None) 40.430870000000000 -73.478460000000000 31792
Tue Mar 18 00:00:00 GMT 2014 laurob_St._John's_University__reporter6 Northern red oak Quercus rubra Fruit (None) 40.430870000000000 -73.478460000000000 31793
Tue Mar 04 00:00:00 GMT 2014 bhartn3 Northern red oak Quercus rubra Bud Burst 39.401500000000000 -76.601910000000000 32233
Mon Apr 21 00:00:00 GMT 2014 bhartn3 Northern red oak Quercus rubra First Leaf 39.401500000000000 -76.601910000000000 32234
Thu Apr 24 00:00:00 GMT 2014 bhartn3 Northern red oak Quercus rubra All Leaves Unfolded 39.401500000000000 -76.601910000000000 32235
Mon Apr 14 00:00:00 GMT 2014 bhartn3 Northern red oak Quercus rubra First Flower 39.401500000000000 -76.601910000000000 32236
Thu Apr 17 00:00:00 GMT 2014 bhartn3 Northern red oak Quercus rubra Full Flower 39.401500000000000 -76.601910000000000 32237
Mon May 12 00:00:00 GMT 2014 MsFBLA_BLA-Laviscount_Park_reporter4 Northern red oak Quercus rubra First Flower 42.316575000000000 -71.086242000000000 32754
Tue May 20 00:00:00 GMT 2014 MsFBLA_BLA-Laviscount_Park_reporter4 Northern red oak Quercus rubra Full Flower 42.316575000000000 -71.086242000000000 32755
Thu Oct 10 00:00:00 GMT 2013 MsFBLA_BLA-Laviscount_Park_reporter4 Northern red oak Quercus rubra 50% Color 42.316575000000000 -71.086242000000000 32756
Thu Oct 24 00:00:00 GMT 2013 MsFBLA_BLA-Laviscount_Park_reporter4 Northern red oak Quercus rubra 50% Leaf Fall 42.316575000000000 -71.086242000000000 32757
Fri Apr 18 00:00:00 GMT 2014 MsFBLA_BLA-Laviscount_Park_reporter4 Northern red oak Quercus rubra Bud Burst 42.316575000000000 -71.086242000000000 32751
Thu Apr 24 00:00:00 GMT 2014 MsFBLA_BLA-Laviscount_Park_reporter4 Northern red oak Quercus rubra First Leaf 42.316575000000000 -71.086242000000000 32752
Tue May 06 00:00:00 GMT 2014 MsFBLA_BLA-Laviscount_Park_reporter4 Northern red oak Quercus rubra All Leaves Unfolded 42.316575000000000 -71.086242000000000 32753
Thu May 22 00:00:00 GMT 2014 olirengo Northern red oak Quercus rubra Bud Burst 46.679339000000000 -92.327535000000000 32841
Fri Oct 11 00:00:00 GMT 2013 scientistsin7thgrade Northern red oak Quercus rubra 50% Color 42.742900000000000 -84.474000000000000 33568
Fri Oct 11 00:00:00 GMT 2013 scientistsin7thgrade Northern red oak Quercus rubra 50% Color 42.742900000000000 -84.474000000000000 33569
Fri Oct 11 00:00:00 GMT 2013 scientistsin7thgrade Northern red oak Quercus rubra 50% Color 42.742900000000000 -84.474000000000000 33570
Fri Oct 11 00:00:00 GMT 2013 scientistsin7thgrade Northern red oak Quercus rubra 50% Color 42.742900000000000 -84.474000000000000 33571
Fri Aug 29 00:00:00 GMT 2014 MrsByers_RHAM_Middle_School_reporter3 Northern red oak Quercus rubra All Leaves Unfolded 41.663800000000000 -72.364400000000000 35120
Mon Sep 01 00:00:00 GMT 2014 cbbartle Northern red oak Quercus rubra All Leaves Unfolded 39.168866000000000 -86.545272000000000 35171
Mon Sep 01 00:00:00 GMT 2014 cbbartle Northern red oak Quercus rubra First Leaf 39.166940000000000 -86.546150000000000 35169
Mon Sep 01 00:00:00 GMT 2014 cbbartle Northern red oak Quercus rubra All Leaves Unfolded 39.166940000000000 -86.546150000000000 35170
Tue Sep 09 00:00:00 GMT 2014 cwetzel Northern red oak Quercus rubra Leaves Unfolding (None) 42.381781000000000 -72.760008000000000 35240
Tue Sep 09 00:00:00 GMT 2014 cwetzel Northern red oak Quercus rubra Leaves Changing Color (None) 42.381781000000000 -72.760008000000000 35241
Tue Sep 09 00:00:00 GMT 2014 cwetzel Northern red oak Quercus rubra Leaves Dropping (None) 42.381781000000000 -72.760008000000000 35242
Tue Sep 09 00:00:00 GMT 2014 cwetzel Northern red oak Quercus rubra Flowers (None) 42.381781000000000 -72.760008000000000 35243
Tue Sep 09 00:00:00 GMT 2014 cwetzel Northern red oak Quercus rubra Fruit (Middle) 42.381781000000000 -72.760008000000000 35244
Wed Sep 10 00:00:00 GMT 2014 hromanwalters802 Northern red oak Quercus rubra Leaves Unfolding (None) 42.335660000000000 -72.652310000000000 35257
Wed Sep 10 00:00:00 GMT 2014 hromanwalters802 Northern red oak Quercus rubra Leaves Changing Color (None) 42.335660000000000 -72.652310000000000 35258
Wed Sep 10 00:00:00 GMT 2014 hromanwalters802 Northern red oak Quercus rubra Leaves Dropping (Early) 42.335660000000000 -72.652310000000000 35259
Wed Sep 10 00:00:00 GMT 2014 hromanwalters802 Northern red oak Quercus rubra Flowers (None) 42.335660000000000 -72.652310000000000 35260
Wed Sep 10 00:00:00 GMT 2014 hromanwalters802 Northern red oak Quercus rubra Fruit (Middle) 42.335660000000000 -72.652310000000000 35261
Tue Sep 16 00:00:00 GMT 2014 jlsnyder335_4H_reporter27 Northern red oak Quercus rubra Leaves Unfolding (Late) 35.742710000000000 -79.173580000000000 35413
Tue Sep 16 00:00:00 GMT 2014 jlsnyder335_4H_reporter27 Northern red oak Quercus rubra Leaves Changing Color (None) 35.742710000000000 -79.173580000000000 35414
Tue Sep 16 00:00:00 GMT 2014 jlsnyder335_4H_reporter27 Northern red oak Quercus rubra Leaves Dropping (None) 35.742710000000000 -79.173580000000000 35415
Tue Sep 16 00:00:00 GMT 2014 jlsnyder335_4H_reporter27 Northern red oak Quercus rubra Flowers (None) 35.742710000000000 -79.173580000000000 35416
Tue Sep 16 00:00:00 GMT 2014 jlsnyder335_4H_reporter27 Northern red oak Quercus rubra Fruit (None) 35.742710000000000 -79.173580000000000 35417
Sat Sep 20 00:00:00 GMT 2014 hromanwalters802 Northern red oak Quercus rubra Leaves Unfolding (None) 42.335660000000000 -72.652310000000000 35483
Sat Sep 20 00:00:00 GMT 2014 hromanwalters802 Northern red oak Quercus rubra Leaves Changing Color (None) 42.335660000000000 -72.652310000000000 35484
Sat Sep 20 00:00:00 GMT 2014 hromanwalters802 Northern red oak Quercus rubra Leaves Dropping (Early) 42.335660000000000 -72.652310000000000 35485
Sat Sep 20 00:00:00 GMT 2014 hromanwalters802 Northern red oak Quercus rubra Flowers (None) 42.335660000000000 -72.652310000000000 35486
Sat Sep 20 00:00:00 GMT 2014 hromanwalters802 Northern red oak Quercus rubra Fruit (Late) 42.335660000000000 -72.652310000000000 35487
Wed Sep 24 00:00:00 GMT 2014 KChapman Northern red oak Quercus rubra Leaves Unfolding (Late) 41.676944000000000 -87.802500000000000 35692
Wed Sep 24 00:00:00 GMT 2014 KChapman Northern red oak Quercus rubra Leaves Changing Color (Early) 41.676944000000000 -87.802500000000000 35693
Wed Sep 24 00:00:00 GMT 2014 KChapman Northern red oak Quercus rubra Leaves Dropping (Early) 41.676944000000000 -87.802500000000000 35694
Wed Sep 24 00:00:00 GMT 2014 KChapman Northern red oak Quercus rubra Flowers (None) 41.676944000000000 -87.802500000000000 35695
Wed Sep 24 00:00:00 GMT 2014 KChapman Northern red oak Quercus rubra Fruit (Late) 41.676944000000000 -87.802500000000000 35696
Sat Sep 27 00:00:00 GMT 2014 esmith0338 Northern red oak Quercus rubra Leaves Unfolding (None) 37.447640000000000 -86.905240000000000 35724
Sat Sep 27 00:00:00 GMT 2014 esmith0338 Northern red oak Quercus rubra Leaves Changing Color (None) 37.447640000000000 -86.905240000000000 35725
Sat Sep 27 00:00:00 GMT 2014 esmith0338 Northern red oak Quercus rubra Leaves Dropping (None) 37.447640000000000 -86.905240000000000 35726
Sat Sep 27 00:00:00 GMT 2014 esmith0338 Northern red oak Quercus rubra Flowers (Early) 37.447640000000000 -86.905240000000000 35727
Sat Sep 27 00:00:00 GMT 2014 esmith0338 Northern red oak Quercus rubra Fruit (None) 37.447640000000000 -86.905240000000000 35728
Sun Sep 28 00:00:00 GMT 2014 hromanwalters802 Northern red oak Quercus rubra Leaves Unfolding (None) 42.335443000000000 -72.651064000000000 35774
Sun Sep 28 00:00:00 GMT 2014 hromanwalters802 Northern red oak Quercus rubra Leaves Changing Color (None) 42.335443000000000 -72.651064000000000 35775
Sun Sep 28 00:00:00 GMT 2014 hromanwalters802 Northern red oak Quercus rubra Leaves Dropping (Early) 42.335443000000000 -72.651064000000000 35776
Sun Sep 28 00:00:00 GMT 2014 hromanwalters802 Northern red oak Quercus rubra Flowers (None) 42.335443000000000 -72.651064000000000 35777
Sun Sep 28 00:00:00 GMT 2014 hromanwalters802 Northern red oak Quercus rubra Fruit (Late) 42.335443000000000 -72.651064000000000 35778
Mon Sep 29 00:00:00 GMT 2014 esmith0338 Northern red oak Quercus rubra Leaves Unfolding (None) 37.450860000000000 -86.898580000000000 35933
Mon Sep 29 00:00:00 GMT 2014 esmith0338 Northern red oak Quercus rubra Leaves Changing Color (None) 37.450860000000000 -86.898580000000000 35934
Mon Sep 29 00:00:00 GMT 2014 esmith0338 Northern red oak Quercus rubra Leaves Dropping (Early) 37.450860000000000 -86.898580000000000 35935
Mon Sep 29 00:00:00 GMT 2014 esmith0338 Northern red oak Quercus rubra Flowers (None) 37.450860000000000 -86.898580000000000 35936
Mon Sep 29 00:00:00 GMT 2014 esmith0338 Northern red oak Quercus rubra Fruit (None) 37.450860000000000 -86.898580000000000 35937
Wed Oct 01 00:00:00 GMT 2014 esmith0338 Northern red oak Quercus rubra Leaves Unfolding (None) 37.450940000000000 -86.898570000000000 35938
Wed Oct 01 00:00:00 GMT 2014 esmith0338 Northern red oak Quercus rubra Leaves Changing Color (Middle) 37.450940000000000 -86.898570000000000 35939
Wed Oct 01 00:00:00 GMT 2014 esmith0338 Northern red oak Quercus rubra Leaves Dropping (Early) 37.450940000000000 -86.898570000000000 35940
Wed Oct 01 00:00:00 GMT 2014 esmith0338 Northern red oak Quercus rubra Flowers (None) 37.450940000000000 -86.898570000000000 35941
Wed Oct 01 00:00:00 GMT 2014 esmith0338 Northern red oak Quercus rubra Fruit (None) 37.450940000000000 -86.898570000000000 35942
Fri Oct 03 00:00:00 GMT 2014 hromanwalters802 Northern red oak Quercus rubra Leaves Unfolding (None) 42.335628000000000 -72.651150000000000 35988
Fri Oct 03 00:00:00 GMT 2014 hromanwalters802 Northern red oak Quercus rubra Leaves Changing Color (Early) 42.335628000000000 -72.651150000000000 35989
Fri Oct 03 00:00:00 GMT 2014 hromanwalters802 Northern red oak Quercus rubra Leaves Dropping (Early) 42.335628000000000 -72.651150000000000 35990
Fri Oct 03 00:00:00 GMT 2014 hromanwalters802 Northern red oak Quercus rubra Flowers (None) 42.335628000000000 -72.651150000000000 35991
Fri Oct 03 00:00:00 GMT 2014 hromanwalters802 Northern red oak Quercus rubra Fruit (None) 42.335628000000000 -72.651150000000000 35992
Sun Aug 03 00:00:00 GMT 2014 MLoose Northern red oak Quercus rubra Full Fruiting 38.023100000000000 -78.357900000000000 36111
Mon Oct 06 00:00:00 GMT 2014 esmith0338 Northern red oak Quercus rubra Leaves Unfolding (None) 37.450940000000000 -86.898570000000000 36242
Mon Oct 06 00:00:00 GMT 2014 esmith0338 Northern red oak Quercus rubra Leaves Changing Color (Early) 37.450940000000000 -86.898570000000000 36243
Mon Oct 06 00:00:00 GMT 2014 esmith0338 Northern red oak Quercus rubra Leaves Dropping (Early) 37.450940000000000 -86.898570000000000 36244
Mon Oct 06 00:00:00 GMT 2014 esmith0338 Northern red oak Quercus rubra Flowers (None) 37.450940000000000 -86.898570000000000 36245
Mon Oct 06 00:00:00 GMT 2014 esmith0338 Northern red oak Quercus rubra Fruit (None) 37.450940000000000 -86.898570000000000 36246
Wed Oct 08 00:00:00 GMT 2014 KChapman Northern red oak Quercus rubra Leaves Unfolding (Late) 41.676944000000000 -87.802500000000000 36446
Wed Oct 08 00:00:00 GMT 2014 KChapman Northern red oak Quercus rubra Leaves Changing Color (Early) 41.676944000000000 -87.802500000000000 36447
Wed Oct 08 00:00:00 GMT 2014 KChapman Northern red oak Quercus rubra Leaves Dropping (Early) 41.676944000000000 -87.802500000000000 36448
Wed Oct 08 00:00:00 GMT 2014 KChapman Northern red oak Quercus rubra Flowers (None) 41.676944000000000 -87.802500000000000 36449
Wed Oct 08 00:00:00 GMT 2014 KChapman Northern red oak Quercus rubra Fruit (None) 41.676944000000000 -87.802500000000000 36450
Wed Oct 08 00:00:00 GMT 2014 KChapman Northern red oak Quercus rubra Leaves Unfolding (Late) 41.677500000000000 -87.805556000000000 36451
Wed Oct 08 00:00:00 GMT 2014 KChapman Northern red oak Quercus rubra Leaves Changing Color (Early) 41.677500000000000 -87.805556000000000 36452
Wed Oct 08 00:00:00 GMT 2014 KChapman Northern red oak Quercus rubra Leaves Dropping (Early) 41.677500000000000 -87.805556000000000 36453
Wed Oct 08 00:00:00 GMT 2014 KChapman Northern red oak Quercus rubra Flowers (None) 41.677500000000000 -87.805556000000000 36454
Wed Oct 08 00:00:00 GMT 2014 KChapman Northern red oak Quercus rubra Fruit (None) 41.677500000000000 -87.805556000000000 36455
Wed Oct 08 00:00:00 GMT 2014 KChapman Northern red oak Quercus rubra Leaves Unfolding (Late) 41.676944000000000 -87.802778000000000 36461
Wed Oct 08 00:00:00 GMT 2014 KChapman Northern red oak Quercus rubra Leaves Changing Color (Early) 41.676944000000000 -87.802778000000000 36462
Wed Oct 08 00:00:00 GMT 2014 KChapman Northern red oak Quercus rubra Leaves Dropping (None) 41.676944000000000 -87.802778000000000 36463
Wed Oct 08 00:00:00 GMT 2014 KChapman Northern red oak Quercus rubra Flowers (None) 41.676944000000000 -87.802778000000000 36464
Wed Oct 08 00:00:00 GMT 2014 KChapman Northern red oak Quercus rubra Fruit (None) 41.676944000000000 -87.802778000000000 36465
Wed Oct 08 00:00:00 GMT 2014 skp0005 Northern red oak Quercus rubra Leaves Unfolding (None) 37.243900000000000 -85.290350000000000 36466
Wed Oct 08 00:00:00 GMT 2014 skp0005 Northern red oak Quercus rubra Leaves Changing Color (Early) 37.243900000000000 -85.290350000000000 36467
Wed Oct 08 00:00:00 GMT 2014 skp0005 Northern red oak Quercus rubra Leaves Dropping (Early) 37.243900000000000 -85.290350000000000 36468
Wed Oct 08 00:00:00 GMT 2014 skp0005 Northern red oak Quercus rubra Flowers (None) 37.243900000000000 -85.290350000000000 36469
Wed Oct 08 00:00:00 GMT 2014 skp0005 Northern red oak Quercus rubra Fruit (None) 37.243900000000000 -85.290350000000000 36470
Thu Oct 09 00:00:00 GMT 2014 esmith0338 Northern red oak Quercus rubra Leaves Unfolding (None) 37.453070000000000 -86.898220000000000 36483
Thu Oct 09 00:00:00 GMT 2014 esmith0338 Northern red oak Quercus rubra Leaves Changing Color (Early) 37.453070000000000 -86.898220000000000 36484
Thu Oct 09 00:00:00 GMT 2014 esmith0338 Northern red oak Quercus rubra Leaves Dropping (Early) 37.453070000000000 -86.898220000000000 36485
Thu Oct 09 00:00:00 GMT 2014 esmith0338 Northern red oak Quercus rubra Flowers (None) 37.453070000000000 -86.898220000000000 36486
Thu Oct 09 00:00:00 GMT 2014 esmith0338 Northern red oak Quercus rubra Fruit (None) 37.453070000000000 -86.898220000000000 36487
Fri Oct 10 00:00:00 GMT 2014 esmith0338 Northern red oak Quercus rubra Leaves Unfolding (None) 37.453070000000000 -86.898220000000000 36698
Fri Oct 10 00:00:00 GMT 2014 esmith0338 Northern red oak Quercus rubra Leaves Changing Color (Early) 37.453070000000000 -86.898220000000000 36699
Fri Oct 10 00:00:00 GMT 2014 esmith0338 Northern red oak Quercus rubra Leaves Dropping (Early) 37.453070000000000 -86.898220000000000 36700
Fri Oct 10 00:00:00 GMT 2014 esmith0338 Northern red oak Quercus rubra Flowers (None) 37.453070000000000 -86.898220000000000 36701
Fri Oct 10 00:00:00 GMT 2014 esmith0338 Northern red oak Quercus rubra Fruit (None) 37.453070000000000 -86.898220000000000 36702
Sat Oct 11 00:00:00 GMT 2014 hromanwalters802 Northern red oak Quercus rubra Leaves Unfolding (None) 42.335665000000000 -72.651107000000000 36719
Sat Oct 11 00:00:00 GMT 2014 hromanwalters802 Northern red oak Quercus rubra Leaves Changing Color (Middle) 42.335665000000000 -72.651107000000000 36720
Sat Oct 11 00:00:00 GMT 2014 hromanwalters802 Northern red oak Quercus rubra Leaves Dropping (Early) 42.335665000000000 -72.651107000000000 36721
Sat Oct 11 00:00:00 GMT 2014 hromanwalters802 Northern red oak Quercus rubra Flowers (None) 42.335665000000000 -72.651107000000000 36722
Sat Oct 11 00:00:00 GMT 2014 hromanwalters802 Northern red oak Quercus rubra Fruit (Late) 42.335665000000000 -72.651107000000000 36723
Sun Oct 12 00:00:00 GMT 2014 skp0005 Northern red oak Quercus rubra Leaves Unfolding (Early) 40.000000000000000 -100.000000000000000 36929
Sun Oct 12 00:00:00 GMT 2014 skp0005 Northern red oak Quercus rubra Leaves Changing Color (Early) 40.000000000000000 -100.000000000000000 36930
Sun Oct 12 00:00:00 GMT 2014 skp0005 Northern red oak Quercus rubra Leaves Dropping (Middle) 40.000000000000000 -100.000000000000000 36931
Sun Oct 12 00:00:00 GMT 2014 skp0005 Northern red oak Quercus rubra Flowers (None) 40.000000000000000 -100.000000000000000 36932
Sun Oct 12 00:00:00 GMT 2014 skp0005 Northern red oak Quercus rubra Fruit (None) 40.000000000000000 -100.000000000000000 36933
Mon Oct 13 00:00:00 GMT 2014 esmith0338 Northern red oak Quercus rubra Leaves Unfolding (None) 37.453070000000000 -86.898220000000000 37065
Mon Oct 13 00:00:00 GMT 2014 esmith0338 Northern red oak Quercus rubra Leaves Changing Color (Early) 37.453070000000000 -86.898220000000000 37066
Mon Oct 13 00:00:00 GMT 2014 esmith0338 Northern red oak Quercus rubra Leaves Dropping (Early) 37.453070000000000 -86.898220000000000 37067
Mon Oct 13 00:00:00 GMT 2014 esmith0338 Northern red oak Quercus rubra Flowers (None) 37.453070000000000 -86.898220000000000 37068
Mon Oct 13 00:00:00 GMT 2014 esmith0338 Northern red oak Quercus rubra Fruit (None) 37.453070000000000 -86.898220000000000 37069
Wed Oct 15 00:00:00 GMT 2014 hromanwalters802 Northern red oak Quercus rubra Leaves Unfolding (None) 42.335570000000000 -72.651064000000000 37279
Wed Oct 15 00:00:00 GMT 2014 hromanwalters802 Northern red oak Quercus rubra Leaves Changing Color (Middle) 42.335570000000000 -72.651064000000000 37280
Wed Oct 15 00:00:00 GMT 2014 hromanwalters802 Northern red oak Quercus rubra Leaves Dropping (Middle) 42.335570000000000 -72.651064000000000 37281
Wed Oct 15 00:00:00 GMT 2014 hromanwalters802 Northern red oak Quercus rubra Flowers (None) 42.335570000000000 -72.651064000000000 37282
Wed Oct 15 00:00:00 GMT 2014 hromanwalters802 Northern red oak Quercus rubra Fruit (None) 42.335570000000000 -72.651064000000000 37283
Wed Oct 15 00:00:00 GMT 2014 KChapman Northern red oak Quercus rubra Leaves Unfolding (Late) 41.676944000000000 -87.802500000000000 37616
Wed Oct 15 00:00:00 GMT 2014 KChapman Northern red oak Quercus rubra Leaves Changing Color (Early) 41.676944000000000 -87.802500000000000 37617
Wed Oct 15 00:00:00 GMT 2014 KChapman Northern red oak Quercus rubra Leaves Dropping (Early) 41.676944000000000 -87.802500000000000 37618
Wed Oct 15 00:00:00 GMT 2014 KChapman Northern red oak Quercus rubra Flowers (None) 41.676944000000000 -87.802500000000000 37619
Wed Oct 15 00:00:00 GMT 2014 KChapman Northern red oak Quercus rubra Fruit (None) 41.676944000000000 -87.802500000000000 37620
Wed Oct 15 00:00:00 GMT 2014 KChapman Northern red oak Quercus rubra Leaves Unfolding (Late) 41.677500000000000 -87.805556000000000 37626
Wed Oct 15 00:00:00 GMT 2014 KChapman Northern red oak Quercus rubra Leaves Changing Color (Late) 41.677500000000000 -87.805556000000000 37627
Wed Oct 15 00:00:00 GMT 2014 KChapman Northern red oak Quercus rubra Leaves Dropping (None) 41.677500000000000 -87.805556000000000 37628
Wed Oct 15 00:00:00 GMT 2014 KChapman Northern red oak Quercus rubra Flowers (None) 41.677500000000000 -87.805556000000000 37629
Wed Oct 15 00:00:00 GMT 2014 KChapman Northern red oak Quercus rubra Fruit (None) 41.677500000000000 -87.805556000000000 37630
Wed Oct 15 00:00:00 GMT 2014 KChapman Northern red oak Quercus rubra Leaves Unfolding (Late) 41.676944000000000 -87.802778000000000 37621
Wed Oct 15 00:00:00 GMT 2014 KChapman Northern red oak Quercus rubra Leaves Changing Color (Late) 41.676944000000000 -87.802778000000000 37622
Wed Oct 15 00:00:00 GMT 2014 KChapman Northern red oak Quercus rubra Leaves Dropping (None) 41.676944000000000 -87.802778000000000 37623
Wed Oct 15 00:00:00 GMT 2014 KChapman Northern red oak Quercus rubra Flowers (None) 41.676944000000000 -87.802778000000000 37624
Wed Oct 15 00:00:00 GMT 2014 KChapman Northern red oak Quercus rubra Fruit (None) 41.676944000000000 -87.802778000000000 37625
Fri Oct 17 00:00:00 GMT 2014 rshuman Northern red oak Quercus rubra Leaves Unfolding (Late) 44.690290000000000 -73.611030000000000 37772
Fri Oct 17 00:00:00 GMT 2014 rshuman Northern red oak Quercus rubra Leaves Changing Color (Middle) 44.690290000000000 -73.611030000000000 37773
Fri Oct 17 00:00:00 GMT 2014 rshuman Northern red oak Quercus rubra Leaves Dropping (Middle) 44.690290000000000 -73.611030000000000 37774
Fri Oct 17 00:00:00 GMT 2014 rshuman Northern red oak Quercus rubra Flowers (None) 44.690290000000000 -73.611030000000000 37775
Fri Oct 17 00:00:00 GMT 2014 rshuman Northern red oak Quercus rubra Fruit (Late) 44.690290000000000 -73.611030000000000 37776
Sat Oct 04 00:00:00 GMT 2014 rshuman Northern red oak Quercus rubra Leaves Unfolding (Late) 44.712080000000000 -73.615410000000000 37727
Sat Oct 04 00:00:00 GMT 2014 rshuman Northern red oak Quercus rubra Leaves Changing Color (Middle) 44.712080000000000 -73.615410000000000 37728
Sat Oct 04 00:00:00 GMT 2014 rshuman Northern red oak Quercus rubra Leaves Dropping (Early) 44.712080000000000 -73.615410000000000 37729
Sat Oct 04 00:00:00 GMT 2014 rshuman Northern red oak Quercus rubra Flowers (None) 44.712080000000000 -73.615410000000000 37730
Sat Oct 04 00:00:00 GMT 2014 rshuman Northern red oak Quercus rubra Fruit (None) 44.712080000000000 -73.615410000000000 37731
Fri Oct 17 00:00:00 GMT 2014 rshuman Northern red oak Quercus rubra Leaves Unfolding (Late) 44.708916000000000 -73.589598000000000 38421
Fri Oct 17 00:00:00 GMT 2014 rshuman Northern red oak Quercus rubra Leaves Changing Color (Middle) 44.708916000000000 -73.589598000000000 38422
Fri Oct 17 00:00:00 GMT 2014 rshuman Northern red oak Quercus rubra Leaves Dropping (Middle) 44.708916000000000 -73.589598000000000 38423
Fri Oct 17 00:00:00 GMT 2014 rshuman Northern red oak Quercus rubra Flowers (Late) 44.708916000000000 -73.589598000000000 38424
Fri Oct 17 00:00:00 GMT 2014 rshuman Northern red oak Quercus rubra Fruit (Middle) 44.708916000000000 -73.589598000000000 38425
Fri Oct 17 00:00:00 GMT 2014 rshuman Northern red oak Quercus rubra Leaves Unfolding (Early) 44.709280000000000 -73.597020000000000 38445
Fri Oct 17 00:00:00 GMT 2014 rshuman Northern red oak Quercus rubra Leaves Changing Color (Early) 44.709280000000000 -73.597020000000000 38446
Fri Oct 17 00:00:00 GMT 2014 rshuman Northern red oak Quercus rubra Leaves Dropping (Early) 44.709280000000000 -73.597020000000000 38447
Fri Oct 17 00:00:00 GMT 2014 rshuman Northern red oak Quercus rubra Flowers (None) 44.709280000000000 -73.597020000000000 38448
Fri Oct 17 00:00:00 GMT 2014 rshuman Northern red oak Quercus rubra Fruit (Middle) 44.709280000000000 -73.597020000000000 38449
Fri Oct 17 00:00:00 GMT 2014 rshuman Northern red oak Quercus rubra Leaves Unfolding (Late) 44.689750000000000 -73.568370000000000 38738
Fri Oct 17 00:00:00 GMT 2014 rshuman Northern red oak Quercus rubra Leaves Changing Color (Middle) 44.689750000000000 -73.568370000000000 38739
Fri Oct 17 00:00:00 GMT 2014 rshuman Northern red oak Quercus rubra Leaves Dropping (Middle) 44.689750000000000 -73.568370000000000 38740
Fri Oct 17 00:00:00 GMT 2014 rshuman Northern red oak Quercus rubra Flowers (None) 44.689750000000000 -73.568370000000000 38741
Fri Oct 17 00:00:00 GMT 2014 rshuman Northern red oak Quercus rubra Fruit (None) 44.689750000000000 -73.568370000000000 38742
Fri Oct 24 00:00:00 GMT 2014 hromanwalters802 Northern red oak Quercus rubra Leaves Unfolding (None) 42.335697000000000 -72.651064000000000 39329
Fri Oct 24 00:00:00 GMT 2014 hromanwalters802 Northern red oak Quercus rubra Leaves Changing Color (Middle) 42.335697000000000 -72.651064000000000 39330
Fri Oct 24 00:00:00 GMT 2014 hromanwalters802 Northern red oak Quercus rubra Leaves Dropping (Middle) 42.335697000000000 -72.651064000000000 39331
Fri Oct 24 00:00:00 GMT 2014 hromanwalters802 Northern red oak Quercus rubra Flowers (None) 42.335697000000000 -72.651064000000000 39332
Fri Oct 24 00:00:00 GMT 2014 hromanwalters802 Northern red oak Quercus rubra Fruit (None) 42.335697000000000 -72.651064000000000 39333
Tue Oct 28 00:00:00 GMT 2014 esmith0338 Northern red oak Quercus rubra Leaves Unfolding (None) 37.453070000000000 -86.898220000000000 39471
Tue Oct 28 00:00:00 GMT 2014 esmith0338 Northern red oak Quercus rubra Leaves Changing Color (Middle) 37.453070000000000 -86.898220000000000 39472
Tue Oct 28 00:00:00 GMT 2014 esmith0338 Northern red oak Quercus rubra Leaves Dropping (Early) 37.453070000000000 -86.898220000000000 39473
Tue Oct 28 00:00:00 GMT 2014 esmith0338 Northern red oak Quercus rubra Flowers (None) 37.453070000000000 -86.898220000000000 39474
Tue Oct 28 00:00:00 GMT 2014 esmith0338 Northern red oak Quercus rubra Fruit (None) 37.453070000000000 -86.898220000000000 39475
Wed Oct 22 00:00:00 GMT 2014 KChapman Northern red oak Quercus rubra Leaves Unfolding (Late) 41.676944000000000 -87.802778000000000 39743
Wed Oct 22 00:00:00 GMT 2014 KChapman Northern red oak Quercus rubra Leaves Changing Color (Late) 41.676944000000000 -87.802778000000000 39744
Wed Oct 22 00:00:00 GMT 2014 KChapman Northern red oak Quercus rubra Leaves Dropping (Early) 41.676944000000000 -87.802778000000000 39745
Wed Oct 22 00:00:00 GMT 2014 KChapman Northern red oak Quercus rubra Flowers (None) 41.676944000000000 -87.802778000000000 39746
Wed Oct 22 00:00:00 GMT 2014 KChapman Northern red oak Quercus rubra Fruit (None) 41.676944000000000 -87.802778000000000 39747
Wed Oct 22 00:00:00 GMT 2014 KChapman Northern red oak Quercus rubra Leaves Unfolding (Late) 41.676944000000000 -87.802500000000000 39748
Wed Oct 22 00:00:00 GMT 2014 KChapman Northern red oak Quercus rubra Leaves Changing Color (Early) 41.676944000000000 -87.802500000000000 39749
Wed Oct 22 00:00:00 GMT 2014 KChapman Northern red oak Quercus rubra Leaves Dropping (Early) 41.676944000000000 -87.802500000000000 39750
Wed Oct 22 00:00:00 GMT 2014 KChapman Northern red oak Quercus rubra Leaves Unfolding (Late) 41.677500000000000 -87.805556000000000 39738
Wed Oct 22 00:00:00 GMT 2014 KChapman Northern red oak Quercus rubra Leaves Changing Color (Late) 41.677500000000000 -87.805556000000000 39739
Wed Oct 22 00:00:00 GMT 2014 KChapman Northern red oak Quercus rubra Flowers (None) 41.676944000000000 -87.802500000000000 39751
Wed Oct 22 00:00:00 GMT 2014 KChapman Northern red oak Quercus rubra Fruit (None) 41.676944000000000 -87.802500000000000 39752
Wed Oct 22 00:00:00 GMT 2014 KChapman Northern red oak Quercus rubra Leaves Dropping (Early) 41.677500000000000 -87.805556000000000 39740
Wed Oct 22 00:00:00 GMT 2014 KChapman Northern red oak Quercus rubra Flowers (None) 41.677500000000000 -87.805556000000000 39741
Wed Oct 22 00:00:00 GMT 2014 KChapman Northern red oak Quercus rubra Fruit (None) 41.677500000000000 -87.805556000000000 39742
Sun Nov 02 00:00:00 GMT 2014 hromanwalters802 Northern red oak Quercus rubra Leaves Unfolding (None) 42.335602000000000 -72.651021000000000 39783
Sun Nov 02 00:00:00 GMT 2014 hromanwalters802 Northern red oak Quercus rubra Leaves Changing Color (None) 42.335602000000000 -72.651021000000000 39784
Sun Nov 02 00:00:00 GMT 2014 hromanwalters802 Northern red oak Quercus rubra Leaves Dropping (Middle) 42.335602000000000 -72.651021000000000 39785
Sun Nov 02 00:00:00 GMT 2014 hromanwalters802 Northern red oak Quercus rubra Flowers (None) 42.335602000000000 -72.651021000000000 39786
Sun Nov 02 00:00:00 GMT 2014 hromanwalters802 Northern red oak Quercus rubra Fruit (None) 42.335602000000000 -72.651021000000000 39787
Tue Nov 04 00:00:00 GMT 2014 SRHSscience Northern red oak Quercus rubra Leaves Unfolding (None) 42.910000000000000 -71.070000000000000 39854
Tue Nov 04 00:00:00 GMT 2014 SRHSscience Northern red oak Quercus rubra Leaves Changing Color (Middle) 42.910000000000000 -71.070000000000000 39855
Tue Nov 04 00:00:00 GMT 2014 SRHSscience Northern red oak Quercus rubra Leaves Dropping (Middle) 42.910000000000000 -71.070000000000000 39856
Tue Nov 04 00:00:00 GMT 2014 SRHSscience Northern red oak Quercus rubra Flowers (None) 42.910000000000000 -71.070000000000000 39857
Tue Nov 04 00:00:00 GMT 2014 SRHSscience Northern red oak Quercus rubra Fruit (None) 42.910000000000000 -71.070000000000000 39858
Wed May 07 00:00:00 GMT 2014 SRHSscience Northern red oak Quercus rubra First Leaf 42.912300000000000 -71.069700000000000 40120
Mon May 12 00:00:00 GMT 2014 SRHSscience Northern red oak Quercus rubra All Leaves Unfolded 42.912300000000000 -71.069700000000000 40121
Mon May 12 00:00:00 GMT 2014 SRHSscience Northern red oak Quercus rubra Bud Burst 42.911300000000000 -71.074500000000000 40130
Tue May 27 00:00:00 GMT 2014 SRHSscience Northern red oak Quercus rubra All Leaves Unfolded 42.911300000000000 -71.074500000000000 40131
Sun Nov 09 00:00:00 GMT 2014 hromanwalters802 Northern red oak Quercus rubra Leaves Unfolding (None) 42.335570000000000 -72.651021000000000 40150
Sun Nov 09 00:00:00 GMT 2014 hromanwalters802 Northern red oak Quercus rubra Leaves Changing Color (None) 42.335570000000000 -72.651021000000000 40151
Sun Nov 09 00:00:00 GMT 2014 hromanwalters802 Northern red oak Quercus rubra Leaves Dropping (Late) 42.335570000000000 -72.651021000000000 40152
Sun Nov 09 00:00:00 GMT 2014 hromanwalters802 Northern red oak Quercus rubra Flowers (None) 42.335570000000000 -72.651021000000000 40153
Sun Nov 09 00:00:00 GMT 2014 hromanwalters802 Northern red oak Quercus rubra Fruit (None) 42.335570000000000 -72.651021000000000 40154
Sun Nov 09 00:00:00 GMT 2014 hromanwalters802 Northern red oak Quercus rubra Leaves Unfolding (None) 42.335570000000000 -72.651021000000000 40145
Sun Nov 09 00:00:00 GMT 2014 hromanwalters802 Northern red oak Quercus rubra Leaves Changing Color (None) 42.335570000000000 -72.651021000000000 40146
Sun Nov 09 00:00:00 GMT 2014 hromanwalters802 Northern red oak Quercus rubra Leaves Dropping (Late) 42.335570000000000 -72.651021000000000 40147
Sun Nov 09 00:00:00 GMT 2014 hromanwalters802 Northern red oak Quercus rubra Flowers (None) 42.335570000000000 -72.651021000000000 40148
Sun Nov 09 00:00:00 GMT 2014 hromanwalters802 Northern red oak Quercus rubra Fruit (None) 42.335570000000000 -72.651021000000000 40149
Thu Nov 13 00:00:00 GMT 2014 mbirdmiller Northern red oak Quercus rubra Bud Burst 43.175940000000000 -71.822300000000000 40237
Thu Nov 13 00:00:00 GMT 2014 mbirdmiller Northern red oak Quercus rubra 50% Leaf Fall 43.175940000000000 -71.822300000000000 40238
Wed Oct 22 00:00:00 GMT 2014 jpberman Northern red oak Quercus rubra 50% Color 39.163889000000000 -86.520510000000000 40588
Thu Oct 09 00:00:00 GMT 2014 kelefthe Northern red oak Quercus rubra 50% Color 39.169140000000000 -86.514910000000000 40653
Fri Oct 03 00:00:00 GMT 2014 mmhilloc Northern red oak Quercus rubra 50% Color 39.165001000000000 -86.521010000000000 40709
Fri Oct 31 00:00:00 GMT 2014 mmhilloc Northern red oak Quercus rubra 50% Leaf Fall 39.165001000000000 -86.521010000000000 40710
Mon Sep 01 00:00:00 GMT 2014 nhack7 Northern red oak Quercus rubra Leaves Unfolding (None) 39.165330000000000 -86.526390000000000 40951
Mon Sep 01 00:00:00 GMT 2014 nhack7 Northern red oak Quercus rubra Leaves Changing Color (None) 39.165330000000000 -86.526390000000000 40952
Mon Sep 01 00:00:00 GMT 2014 nhack7 Northern red oak Quercus rubra Leaves Dropping (None) 39.165330000000000 -86.526390000000000 40953
Mon Sep 01 00:00:00 GMT 2014 nhack7 Northern red oak Quercus rubra Flowers (None) 39.165330000000000 -86.526390000000000 40954
Mon Sep 01 00:00:00 GMT 2014 nhack7 Northern red oak Quercus rubra Fruit (None) 39.165330000000000 -86.526390000000000 40955
Tue Oct 21 00:00:00 GMT 2014 madstahl Northern red oak Quercus rubra 50% Color 39.165422000000000 -86.521389000000000 40901
Thu Oct 30 00:00:00 GMT 2014 madstahl Northern red oak Quercus rubra 50% Leaf Fall 39.165422000000000 -86.521389000000000 40902
Mon Nov 24 00:00:00 GMT 2014 KChapman Northern red oak Quercus rubra Leaves Unfolding (Late) 41.676944000000000 -87.802500000000000 42040
Mon Nov 24 00:00:00 GMT 2014 KChapman Northern red oak Quercus rubra Leaves Changing Color (Late) 41.676944000000000 -87.802500000000000 42041
Mon Nov 24 00:00:00 GMT 2014 KChapman Northern red oak Quercus rubra Leaves Dropping (Late) 41.676944000000000 -87.802500000000000 42042
Wed Nov 12 00:00:00 GMT 2014 KChapman Northern red oak Quercus rubra Leaves Unfolding (Late) 41.676944000000000 -87.802500000000000 42025
Wed Nov 12 00:00:00 GMT 2014 KChapman Northern red oak Quercus rubra Leaves Changing Color (Late) 41.676944000000000 -87.802500000000000 42026
Mon Nov 24 00:00:00 GMT 2014 KChapman Northern red oak Quercus rubra Flowers (None) 41.676944000000000 -87.802500000000000 42043
Mon Nov 24 00:00:00 GMT 2014 KChapman Northern red oak Quercus rubra Fruit (None) 41.676944000000000 -87.802500000000000 42044
Wed Nov 12 00:00:00 GMT 2014 KChapman Northern red oak Quercus rubra Leaves Dropping (Early) 41.676944000000000 -87.802500000000000 42027
Wed Nov 12 00:00:00 GMT 2014 KChapman Northern red oak Quercus rubra Flowers (None) 41.676944000000000 -87.802500000000000 42028
Wed Nov 12 00:00:00 GMT 2014 KChapman Northern red oak Quercus rubra Fruit (None) 41.676944000000000 -87.802500000000000 42029
Wed Nov 19 00:00:00 GMT 2014 KChapman Northern red oak Quercus rubra Leaves Unfolding (Late) 41.676944000000000 -87.802500000000000 42030
Wed Nov 19 00:00:00 GMT 2014 KChapman Northern red oak Quercus rubra Leaves Changing Color (Late) 41.676944000000000 -87.802500000000000 42031
Wed Nov 19 00:00:00 GMT 2014 KChapman Northern red oak Quercus rubra Leaves Dropping (Middle) 41.676944000000000 -87.802500000000000 42032
Wed Nov 19 00:00:00 GMT 2014 KChapman Northern red oak Quercus rubra Flowers (None) 41.676944000000000 -87.802500000000000 42033
Wed Nov 19 00:00:00 GMT 2014 KChapman Northern red oak Quercus rubra Fruit (None) 41.676944000000000 -87.802500000000000 42034
Wed Nov 05 00:00:00 GMT 2014 KChapman Northern red oak Quercus rubra Leaves Unfolding (Late) 41.677500000000000 -87.805556000000000 42005
Wed Nov 05 00:00:00 GMT 2014 KChapman Northern red oak Quercus rubra Leaves Changing Color (None) 41.677500000000000 -87.805556000000000 42006
Wed Nov 05 00:00:00 GMT 2014 KChapman Northern red oak Quercus rubra Leaves Dropping (None) 41.677500000000000 -87.805556000000000 42007
Wed Nov 05 00:00:00 GMT 2014 KChapman Northern red oak Quercus rubra Flowers (None) 41.677500000000000 -87.805556000000000 42008
Wed Nov 05 00:00:00 GMT 2014 KChapman Northern red oak Quercus rubra Fruit (None) 41.677500000000000 -87.805556000000000 42009
Wed Nov 05 00:00:00 GMT 2014 KChapman Northern red oak Quercus rubra Leaves Unfolding (Late) 41.676944000000000 -87.802778000000000 42010
Wed Nov 05 00:00:00 GMT 2014 KChapman Northern red oak Quercus rubra Leaves Changing Color (None) 41.676944000000000 -87.802778000000000 42011
Wed Nov 05 00:00:00 GMT 2014 KChapman Northern red oak Quercus rubra Leaves Dropping (None) 41.676944000000000 -87.802778000000000 42012
Wed Nov 05 00:00:00 GMT 2014 KChapman Northern red oak Quercus rubra Flowers (None) 41.676944000000000 -87.802778000000000 42013
Wed Nov 05 00:00:00 GMT 2014 KChapman Northern red oak Quercus rubra Fruit (None) 41.676944000000000 -87.802778000000000 42014
Wed Nov 05 00:00:00 GMT 2014 KChapman Northern red oak Quercus rubra Leaves Unfolding (Late) 41.676944000000000 -87.802778000000000 42015
Wed Nov 05 00:00:00 GMT 2014 KChapman Northern red oak Quercus rubra Leaves Changing Color (Late) 41.676944000000000 -87.802778000000000 42016
Wed Nov 05 00:00:00 GMT 2014 KChapman Northern red oak Quercus rubra Leaves Dropping (Early) 41.676944000000000 -87.802778000000000 42017
Wed Nov 05 00:00:00 GMT 2014 KChapman Northern red oak Quercus rubra Flowers (None) 41.676944000000000 -87.802778000000000 42018
Wed Nov 05 00:00:00 GMT 2014 KChapman Northern red oak Quercus rubra Fruit (None) 41.676944000000000 -87.802778000000000 42019
Sat Oct 04 00:00:00 GMT 2014 nhack7 Northern red oak Quercus rubra Leaves Unfolding (None) 39.168034000000000 -86.518815000000000 42624
Sat Oct 04 00:00:00 GMT 2014 nhack7 Northern red oak Quercus rubra Leaves Changing Color (Middle) 39.168034000000000 -86.518815000000000 42625
Sat Oct 04 00:00:00 GMT 2014 nhack7 Northern red oak Quercus rubra Leaves Dropping (None) 39.168034000000000 -86.518815000000000 42626
Sat Oct 04 00:00:00 GMT 2014 nhack7 Northern red oak Quercus rubra Flowers (None) 39.168034000000000 -86.518815000000000 42627
Sat Oct 04 00:00:00 GMT 2014 nhack7 Northern red oak Quercus rubra Fruit (None) 39.168034000000000 -86.518815000000000 42628
Mon Oct 27 00:00:00 GMT 2014 nhack7 Northern red oak Quercus rubra Leaves Unfolding (None) 39.167868000000000 -86.518729000000000 42629
Mon Oct 27 00:00:00 GMT 2014 nhack7 Northern red oak Quercus rubra Leaves Changing Color (Late) 39.167868000000000 -86.518729000000000 42630
Mon Oct 27 00:00:00 GMT 2014 nhack7 Northern red oak Quercus rubra Leaves Dropping (Middle) 39.167868000000000 -86.518729000000000 42631
Mon Oct 27 00:00:00 GMT 2014 nhack7 Northern red oak Quercus rubra Flowers (None) 39.167868000000000 -86.518729000000000 42632
Mon Oct 27 00:00:00 GMT 2014 nhack7 Northern red oak Quercus rubra Fruit (None) 39.167868000000000 -86.518729000000000 42633
Thu Dec 04 00:00:00 GMT 2014 nhack7 Northern red oak Quercus rubra Leaves Unfolding (None) 39.167967000000000 -86.518900000000000 42634
Thu Dec 04 00:00:00 GMT 2014 nhack7 Northern red oak Quercus rubra Leaves Changing Color (Late) 39.167967000000000 -86.518900000000000 42635
Thu Dec 04 00:00:00 GMT 2014 nhack7 Northern red oak Quercus rubra Leaves Dropping (Late) 39.167967000000000 -86.518900000000000 42636
Thu Dec 04 00:00:00 GMT 2014 nhack7 Northern red oak Quercus rubra Flowers (None) 39.167967000000000 -86.518900000000000 42637
Thu Dec 04 00:00:00 GMT 2014 nhack7 Northern red oak Quercus rubra Fruit (None) 39.167967000000000 -86.518900000000000 42638
Thu May 15 00:00:00 GMT 2014 mpgooley Northern red oak Quercus rubra All Leaves Unfolded 42.358800000000000 -71.250500000000000 44574
Wed May 07 00:00:00 GMT 2014 mpgooley Northern red oak Quercus rubra Full Flower 42.358800000000000 -71.250500000000000 44575
Sun Nov 02 00:00:00 GMT 2014 mpgooley Northern red oak Quercus rubra 50% Color 42.358800000000000 -71.250500000000000 44576
Sat Nov 15 00:00:00 GMT 2014 mpgooley Northern red oak Quercus rubra 50% Leaf Fall 42.358800000000000 -71.250500000000000 44577
Wed Apr 08 00:00:00 GMT 2015 kgarbach_Loyola_University_Chicago_reporter143 Northern red oak Quercus rubra Leaves Unfolding (None) 41.878110000000000 -87.629800000000000 46013
Wed Apr 08 00:00:00 GMT 2015 kgarbach_Loyola_University_Chicago_reporter143 Northern red oak Quercus rubra Leaves Changing Color (None) 41.878110000000000 -87.629800000000000 46014
Wed Apr 08 00:00:00 GMT 2015 kgarbach_Loyola_University_Chicago_reporter143 Northern red oak Quercus rubra Leaves Dropping (None) 41.878110000000000 -87.629800000000000 46015
Wed Apr 08 00:00:00 GMT 2015 kgarbach_Loyola_University_Chicago_reporter143 Northern red oak Quercus rubra Flowers (None) 41.878110000000000 -87.629800000000000 46016
Wed Apr 08 00:00:00 GMT 2015 kgarbach_Loyola_University_Chicago_reporter143 Northern red oak Quercus rubra Fruit (None) 41.878110000000000 -87.629800000000000 46017
Tue Mar 31 00:00:00 GMT 2015 aschmidt Northern red oak Quercus rubra Leaves Unfolding (None) 39.165479000000000 -86.510861000000000 46391
Tue Mar 31 00:00:00 GMT 2015 aschmidt Northern red oak Quercus rubra Leaves Changing Color (None) 39.165479000000000 -86.510861000000000 46392
Tue Mar 31 00:00:00 GMT 2015 aschmidt Northern red oak Quercus rubra Leaves Dropping (None) 39.165479000000000 -86.510861000000000 46393
Tue Mar 31 00:00:00 GMT 2015 aschmidt Northern red oak Quercus rubra Flowers (None) 39.165479000000000 -86.510861000000000 46394
Tue Mar 31 00:00:00 GMT 2015 aschmidt Northern red oak Quercus rubra Fruit (None) 39.165479000000000 -86.510861000000000 46395
Fri Apr 10 00:00:00 GMT 2015 linatyle Northern red oak Quercus rubra Leaves Unfolding (None) 39.169959000000000 -86.516325000000000 46416
Fri Apr 10 00:00:00 GMT 2015 linatyle Northern red oak Quercus rubra Leaves Changing Color (None) 39.169959000000000 -86.516325000000000 46417
Fri Apr 10 00:00:00 GMT 2015 linatyle Northern red oak Quercus rubra Leaves Dropping (None) 39.169959000000000 -86.516325000000000 46418
Fri Apr 10 00:00:00 GMT 2015 linatyle Northern red oak Quercus rubra Flowers (None) 39.169959000000000 -86.516325000000000 46419
Fri Apr 10 00:00:00 GMT 2015 linatyle Northern red oak Quercus rubra Fruit (None) 39.169959000000000 -86.516325000000000 46420
Fri Apr 10 00:00:00 GMT 2015 linatyle Northern red oak Quercus rubra Leaves Unfolding (Early) 39.169925000000000 -86.516669000000000 46410
Fri Apr 10 00:00:00 GMT 2015 linatyle Northern red oak Quercus rubra Leaves Changing Color (None) 39.169925000000000 -86.516669000000000 46411
Fri Apr 10 00:00:00 GMT 2015 linatyle Northern red oak Quercus rubra Leaves Dropping (None) 39.169925000000000 -86.516669000000000 46412
Fri Apr 10 00:00:00 GMT 2015 linatyle Northern red oak Quercus rubra Flowers (None) 39.169925000000000 -86.516669000000000 46413
Fri Apr 10 00:00:00 GMT 2015 linatyle Northern red oak Quercus rubra Fruit (None) 39.169925000000000 -86.516669000000000 46414
Fri Apr 10 00:00:00 GMT 2015 linatyle Northern red oak Quercus rubra Leaves Unfolding (None) 39.169992000000000 -86.516283000000000 46426
Fri Apr 10 00:00:00 GMT 2015 linatyle Northern red oak Quercus rubra Leaves Changing Color (None) 39.169992000000000 -86.516283000000000 46427
Fri Apr 10 00:00:00 GMT 2015 linatyle Northern red oak Quercus rubra Leaves Dropping (None) 39.169992000000000 -86.516283000000000 46428
Fri Apr 10 00:00:00 GMT 2015 linatyle Northern red oak Quercus rubra Flowers (None) 39.169992000000000 -86.516283000000000 46429
Fri Apr 10 00:00:00 GMT 2015 linatyle Northern red oak Quercus rubra Fruit (None) 39.169992000000000 -86.516283000000000 46430
Tue Mar 31 00:00:00 GMT 2015 wellscl Northern red oak Quercus rubra Leaves Unfolding (None) 39.079360000000000 -86.438970000000000 46436
Tue Mar 31 00:00:00 GMT 2015 wellscl Northern red oak Quercus rubra Leaves Changing Color (None) 39.079360000000000 -86.438970000000000 46437
Tue Mar 31 00:00:00 GMT 2015 wellscl Northern red oak Quercus rubra Leaves Dropping (None) 39.079360000000000 -86.438970000000000 46438
Tue Mar 31 00:00:00 GMT 2015 wellscl Northern red oak Quercus rubra Flowers (None) 39.079360000000000 -86.438970000000000 46439
Tue Mar 31 00:00:00 GMT 2015 wellscl Northern red oak Quercus rubra Fruit (None) 39.079360000000000 -86.438970000000000 46440
Wed Apr 01 00:00:00 GMT 2015 kgrande6 Northern red oak Quercus rubra Bud Burst 39.170120000000000 -86.512806000000000 46654
Tue Apr 14 00:00:00 GMT 2015 LaurieNeh Northern red oak Quercus rubra Leaves Unfolding (None) 42.643051000000000 -71.307600000000000 46681
Tue Apr 14 00:00:00 GMT 2015 LaurieNeh Northern red oak Quercus rubra Leaves Changing Color (None) 42.643051000000000 -71.307600000000000 46682
Tue Apr 14 00:00:00 GMT 2015 LaurieNeh Northern red oak Quercus rubra Leaves Dropping (None) 42.643051000000000 -71.307600000000000 46683
Tue Apr 14 00:00:00 GMT 2015 LaurieNeh Northern red oak Quercus rubra Flowers (None) 42.643051000000000 -71.307600000000000 46684
Tue Apr 14 00:00:00 GMT 2015 LaurieNeh Northern red oak Quercus rubra Fruit (None) 42.643051000000000 -71.307600000000000 46685
Fri Apr 10 00:00:00 GMT 2015 eaaldrid Northern red oak Quercus rubra Leaves Unfolding (Early) 39.164574000000000 -86.515553000000000 46670
Fri Apr 10 00:00:00 GMT 2015 eaaldrid Northern red oak Quercus rubra Leaves Changing Color (None) 39.164574000000000 -86.515553000000000 46671
Fri Apr 10 00:00:00 GMT 2015 eaaldrid Northern red oak Quercus rubra Leaves Dropping (None) 39.164574000000000 -86.515553000000000 46672
Fri Apr 10 00:00:00 GMT 2015 eaaldrid Northern red oak Quercus rubra Flowers (None) 39.164574000000000 -86.515553000000000 46673
Fri Apr 10 00:00:00 GMT 2015 eaaldrid Northern red oak Quercus rubra Fruit (None) 39.164574000000000 -86.515553000000000 46674
Tue Apr 14 00:00:00 GMT 2015 kgarbach_Loyola_University_Chicago_reporter143 Northern red oak Quercus rubra Leaves Unfolding (None) 41.998570000000000 -87.657630000000000 46776
Tue Apr 14 00:00:00 GMT 2015 kgarbach_Loyola_University_Chicago_reporter143 Northern red oak Quercus rubra Leaves Changing Color (None) 41.998570000000000 -87.657630000000000 46777
Tue Apr 14 00:00:00 GMT 2015 kgarbach_Loyola_University_Chicago_reporter143 Northern red oak Quercus rubra Leaves Dropping (None) 41.998570000000000 -87.657630000000000 46778
Tue Apr 14 00:00:00 GMT 2015 kgarbach_Loyola_University_Chicago_reporter143 Northern red oak Quercus rubra Flowers (None) 41.998570000000000 -87.657630000000000 46779
Tue Apr 14 00:00:00 GMT 2015 kgarbach_Loyola_University_Chicago_reporter143 Northern red oak Quercus rubra Fruit (None) 41.998570000000000 -87.657630000000000 46780
Mon Apr 20 00:00:00 GMT 2015 kgarbach_Loyola_University_Chicago_reporter153 Northern red oak Quercus rubra Leaves Unfolding (None) 41.999847000000000 -87.656972000000000 47043
Mon Apr 20 00:00:00 GMT 2015 kgarbach_Loyola_University_Chicago_reporter153 Northern red oak Quercus rubra Leaves Changing Color (None) 41.999847000000000 -87.656972000000000 47044
Mon Apr 20 00:00:00 GMT 2015 kgarbach_Loyola_University_Chicago_reporter153 Northern red oak Quercus rubra Leaves Dropping (None) 41.999847000000000 -87.656972000000000 47045
Mon Apr 20 00:00:00 GMT 2015 kgarbach_Loyola_University_Chicago_reporter153 Northern red oak Quercus rubra Flowers (None) 41.999847000000000 -87.656972000000000 47046
Mon Apr 20 00:00:00 GMT 2015 kgarbach_Loyola_University_Chicago_reporter153 Northern red oak Quercus rubra Fruit (None) 41.999847000000000 -87.656972000000000 47047
Mon Apr 20 00:00:00 GMT 2015 kgarbach_Loyola_University_Chicago_reporter143 Northern red oak Quercus rubra Leaves Unfolding (None) 41.998570000000000 -87.657630000000000 47123
Mon Apr 20 00:00:00 GMT 2015 kgarbach_Loyola_University_Chicago_reporter143 Northern red oak Quercus rubra Leaves Changing Color (None) 41.998570000000000 -87.657630000000000 47124
Mon Apr 20 00:00:00 GMT 2015 kgarbach_Loyola_University_Chicago_reporter143 Northern red oak Quercus rubra Leaves Dropping (None) 41.998570000000000 -87.657630000000000 47125
Mon Apr 20 00:00:00 GMT 2015 kgarbach_Loyola_University_Chicago_reporter143 Northern red oak Quercus rubra Flowers (None) 41.998570000000000 -87.657630000000000 47126
Mon Apr 20 00:00:00 GMT 2015 kgarbach_Loyola_University_Chicago_reporter143 Northern red oak Quercus rubra Fruit (None) 41.998570000000000 -87.657630000000000 47127
Tue Apr 21 00:00:00 GMT 2015 kgarbach_Loyola_University_Chicago_reporter144 Northern red oak Quercus rubra Leaves Unfolding (None) 42.000325000000000 -87.758789000000000 47218
Tue Apr 21 00:00:00 GMT 2015 kgarbach_Loyola_University_Chicago_reporter144 Northern red oak Quercus rubra Leaves Changing Color (None) 42.000325000000000 -87.758789000000000 47219
Tue Apr 21 00:00:00 GMT 2015 kgarbach_Loyola_University_Chicago_reporter144 Northern red oak Quercus rubra Leaves Dropping (None) 42.000325000000000 -87.758789000000000 47220
Tue Apr 21 00:00:00 GMT 2015 kgarbach_Loyola_University_Chicago_reporter144 Northern red oak Quercus rubra Flowers (None) 42.000325000000000 -87.758789000000000 47221
Tue Apr 21 00:00:00 GMT 2015 kgarbach_Loyola_University_Chicago_reporter144 Northern red oak Quercus rubra Fruit (None) 42.000325000000000 -87.758789000000000 47222
Mon Mar 23 00:00:00 GMT 2015 kgarbach_Loyola_University_Chicago_reporter144 Northern red oak Quercus rubra Leaves Unfolding (None) 42.008489000000000 -87.692871000000000 47198
Mon Mar 23 00:00:00 GMT 2015 kgarbach_Loyola_University_Chicago_reporter144 Northern red oak Quercus rubra Leaves Changing Color (None) 42.008489000000000 -87.692871000000000 47199
Mon Mar 23 00:00:00 GMT 2015 kgarbach_Loyola_University_Chicago_reporter144 Northern red oak Quercus rubra Leaves Dropping (None) 42.008489000000000 -87.692871000000000 47200
Mon Mar 23 00:00:00 GMT 2015 kgarbach_Loyola_University_Chicago_reporter144 Northern red oak Quercus rubra Flowers (None) 42.008489000000000 -87.692871000000000 47201
Mon Mar 23 00:00:00 GMT 2015 kgarbach_Loyola_University_Chicago_reporter144 Northern red oak Quercus rubra Fruit (None) 42.008489000000000 -87.692871000000000 47202
Tue Apr 07 00:00:00 GMT 2015 kgarbach_Loyola_University_Chicago_reporter144 Northern red oak Quercus rubra Leaves Unfolding (None) 41.902277000000000 -87.758789000000000 47213
Tue Apr 07 00:00:00 GMT 2015 kgarbach_Loyola_University_Chicago_reporter144 Northern red oak Quercus rubra Leaves Changing Color (None) 41.902277000000000 -87.758789000000000 47214
Tue Apr 07 00:00:00 GMT 2015 kgarbach_Loyola_University_Chicago_reporter144 Northern red oak Quercus rubra Leaves Dropping (None) 41.902277000000000 -87.758789000000000 47215
Tue Apr 07 00:00:00 GMT 2015 kgarbach_Loyola_University_Chicago_reporter144 Northern red oak Quercus rubra Flowers (None) 41.902277000000000 -87.758789000000000 47216
Tue Apr 07 00:00:00 GMT 2015 kgarbach_Loyola_University_Chicago_reporter144 Northern red oak Quercus rubra Fruit (None) 41.902277000000000 -87.758789000000000 47217
Tue Apr 14 00:00:00 GMT 2015 jgehres Northern red oak Quercus rubra Bud Burst 38.986920000000000 -76.942550000000000 47239
Sun Apr 19 00:00:00 GMT 2015 jgehres Northern red oak Quercus rubra First Leaf 38.986920000000000 -76.942550000000000 47240
Tue Apr 21 00:00:00 GMT 2015 kgarbach_Loyola_University_Chicago_reporter164 Northern red oak Quercus rubra Leaves Unfolding (None) 41.897400000000000 -87.624900000000000 47252
Tue Apr 21 00:00:00 GMT 2015 kgarbach_Loyola_University_Chicago_reporter164 Northern red oak Quercus rubra Leaves Changing Color (None) 41.897400000000000 -87.624900000000000 47253
Tue Apr 21 00:00:00 GMT 2015 kgarbach_Loyola_University_Chicago_reporter164 Northern red oak Quercus rubra Leaves Dropping (None) 41.897400000000000 -87.624900000000000 47254
Tue Apr 21 00:00:00 GMT 2015 kgarbach_Loyola_University_Chicago_reporter164 Northern red oak Quercus rubra Flowers (None) 41.897400000000000 -87.624900000000000 47255
Tue Apr 21 00:00:00 GMT 2015 kgarbach_Loyola_University_Chicago_reporter164 Northern red oak Quercus rubra Fruit (None) 41.897400000000000 -87.624900000000000 47256
Wed Apr 22 00:00:00 GMT 2015 kgarbach_Loyola_University_Chicago_reporter160 Northern red oak Quercus rubra Leaves Unfolding (None) 41.998343000000000 -87.655998000000000 47322
Wed Apr 22 00:00:00 GMT 2015 kgarbach_Loyola_University_Chicago_reporter160 Northern red oak Quercus rubra Leaves Changing Color (None) 41.998343000000000 -87.655998000000000 47323
Wed Apr 22 00:00:00 GMT 2015 kgarbach_Loyola_University_Chicago_reporter160 Northern red oak Quercus rubra Leaves Dropping (None) 41.998343000000000 -87.655998000000000 47324
Wed Apr 22 00:00:00 GMT 2015 kgarbach_Loyola_University_Chicago_reporter160 Northern red oak Quercus rubra Flowers (None) 41.998343000000000 -87.655998000000000 47325
Wed Apr 22 00:00:00 GMT 2015 kgarbach_Loyola_University_Chicago_reporter160 Northern red oak Quercus rubra Fruit (None) 41.998343000000000 -87.655998000000000 47326
Thu Apr 02 00:00:00 GMT 2015 kgarbach_Loyola_University_Chicago_reporter180 Northern red oak Quercus rubra Leaves Unfolding (None) 41.998240000000000 -87.656240000000000 47536
Thu Apr 02 00:00:00 GMT 2015 kgarbach_Loyola_University_Chicago_reporter180 Northern red oak Quercus rubra Leaves Changing Color (None) 41.998240000000000 -87.656240000000000 47537
Thu Apr 02 00:00:00 GMT 2015 kgarbach_Loyola_University_Chicago_reporter180 Northern red oak Quercus rubra Leaves Dropping (None) 41.998240000000000 -87.656240000000000 47538
Thu Apr 02 00:00:00 GMT 2015 kgarbach_Loyola_University_Chicago_reporter180 Northern red oak Quercus rubra Flowers (None) 41.998240000000000 -87.656240000000000 47539
Thu Apr 02 00:00:00 GMT 2015 kgarbach_Loyola_University_Chicago_reporter180 Northern red oak Quercus rubra Fruit (None) 41.998240000000000 -87.656240000000000 47540
Thu Apr 09 00:00:00 GMT 2015 kgarbach_Loyola_University_Chicago_reporter180 Northern red oak Quercus rubra Leaves Unfolding (None) 41.998240000000000 -87.656240000000000 47531
Thu Apr 09 00:00:00 GMT 2015 kgarbach_Loyola_University_Chicago_reporter180 Northern red oak Quercus rubra Leaves Changing Color (None) 41.998240000000000 -87.656240000000000 47532
Thu Apr 09 00:00:00 GMT 2015 kgarbach_Loyola_University_Chicago_reporter180 Northern red oak Quercus rubra Leaves Dropping (None) 41.998240000000000 -87.656240000000000 47533
Thu Apr 09 00:00:00 GMT 2015 kgarbach_Loyola_University_Chicago_reporter180 Northern red oak Quercus rubra Flowers (None) 41.998240000000000 -87.656240000000000 47534
Thu Apr 09 00:00:00 GMT 2015 kgarbach_Loyola_University_Chicago_reporter180 Northern red oak Quercus rubra Fruit (None) 41.998240000000000 -87.656240000000000 47535
Thu Apr 16 00:00:00 GMT 2015 kgarbach_Loyola_University_Chicago_reporter154 Northern red oak Quercus rubra Leaves Unfolding (None) 41.999783000000000 -87.656929000000000 47400
Thu Apr 16 00:00:00 GMT 2015 kgarbach_Loyola_University_Chicago_reporter154 Northern red oak Quercus rubra Leaves Changing Color (None) 41.999783000000000 -87.656929000000000 47401
Thu Apr 16 00:00:00 GMT 2015 kgarbach_Loyola_University_Chicago_reporter154 Northern red oak Quercus rubra Leaves Dropping (None) 41.999783000000000 -87.656929000000000 47402
Thu Apr 16 00:00:00 GMT 2015 kgarbach_Loyola_University_Chicago_reporter154 Northern red oak Quercus rubra Flowers (None) 41.999783000000000 -87.656929000000000 47403
Thu Apr 16 00:00:00 GMT 2015 kgarbach_Loyola_University_Chicago_reporter154 Northern red oak Quercus rubra Fruit (None) 41.999783000000000 -87.656929000000000 47404
Wed Apr 22 00:00:00 GMT 2015 kgarbach_Loyola_University_Chicago_reporter150 Northern red oak Quercus rubra Leaves Changing Color (None) 41.998240000000000 -87.656240000000000 47448
Wed Apr 22 00:00:00 GMT 2015 kgarbach_Loyola_University_Chicago_reporter150 Northern red oak Quercus rubra Leaves Dropping (None) 41.998240000000000 -87.656240000000000 47449
Wed Apr 22 00:00:00 GMT 2015 kgarbach_Loyola_University_Chicago_reporter150 Northern red oak Quercus rubra Flowers (None) 41.998240000000000 -87.656240000000000 47450
Wed Apr 22 00:00:00 GMT 2015 kgarbach_Loyola_University_Chicago_reporter150 Northern red oak Quercus rubra Fruit (None) 41.998240000000000 -87.656240000000000 47451
Wed Apr 22 00:00:00 GMT 2015 kgarbach_Loyola_University_Chicago_reporter150 Northern red oak Quercus rubra Leaves Unfolding (None) 41.998240000000000 -87.656240000000000 47447
Mon Apr 20 00:00:00 GMT 2015 kgarbach_Loyola_University_Chicago_reporter173 Northern red oak Quercus rubra Leaves Unfolding (None) 41.999655000000000 -87.657015000000000 47461
Mon Apr 20 00:00:00 GMT 2015 kgarbach_Loyola_University_Chicago_reporter173 Northern red oak Quercus rubra Leaves Changing Color (None) 41.999655000000000 -87.657015000000000 47462
Mon Apr 20 00:00:00 GMT 2015 kgarbach_Loyola_University_Chicago_reporter173 Northern red oak Quercus rubra Leaves Dropping (None) 41.999655000000000 -87.657015000000000 47463
Mon Apr 20 00:00:00 GMT 2015 kgarbach_Loyola_University_Chicago_reporter173 Northern red oak Quercus rubra Flowers (None) 41.999655000000000 -87.657015000000000 47464
Mon Apr 20 00:00:00 GMT 2015 kgarbach_Loyola_University_Chicago_reporter173 Northern red oak Quercus rubra Fruit (None) 41.999655000000000 -87.657015000000000 47465
Thu Apr 16 00:00:00 GMT 2015 kgarbach_Loyola_University_Chicago_reporter180 Northern red oak Quercus rubra Leaves Unfolding (None) 41.998240000000000 -87.656240000000000 47486
Thu Apr 16 00:00:00 GMT 2015 kgarbach_Loyola_University_Chicago_reporter180 Northern red oak Quercus rubra Leaves Changing Color (None) 41.998240000000000 -87.656240000000000 47487
Thu Apr 16 00:00:00 GMT 2015 kgarbach_Loyola_University_Chicago_reporter180 Northern red oak Quercus rubra Leaves Dropping (None) 41.998240000000000 -87.656240000000000 47488
Thu Apr 16 00:00:00 GMT 2015 kgarbach_Loyola_University_Chicago_reporter180 Northern red oak Quercus rubra Flowers (None) 41.998240000000000 -87.656240000000000 47489
Thu Apr 16 00:00:00 GMT 2015 kgarbach_Loyola_University_Chicago_reporter180 Northern red oak Quercus rubra Fruit (None) 41.998240000000000 -87.656240000000000 47490
Fri Apr 24 00:00:00 GMT 2015 jgehres Northern red oak Quercus rubra All Leaves Unfolded 38.986920000000000 -76.942550000000000 47683
Thu Apr 16 00:00:00 GMT 2015 KChapman Northern red oak Quercus rubra Leaves Unfolding (None) 41.677000000000000 -87.802600000000000 47713
Thu Apr 16 00:00:00 GMT 2015 KChapman Northern red oak Quercus rubra Leaves Changing Color (None) 41.677000000000000 -87.802600000000000 47714
Thu Apr 16 00:00:00 GMT 2015 KChapman Northern red oak Quercus rubra Leaves Dropping (None) 41.677000000000000 -87.802600000000000 47715
Thu Apr 16 00:00:00 GMT 2015 KChapman Northern red oak Quercus rubra Flowers (None) 41.677000000000000 -87.802600000000000 47716
Thu Apr 16 00:00:00 GMT 2015 KChapman Northern red oak Quercus rubra Fruit (None) 41.677000000000000 -87.802600000000000 47717
Fri Apr 17 00:00:00 GMT 2015 laurob_St._John's_University__reporter6 Northern red oak Quercus rubra Bud Burst 40.721400000000000 -73.793200000000000 49369
Tue Apr 28 00:00:00 GMT 2015 laurob_St._John's_University__reporter6 Northern red oak Quercus rubra First Leaf 40.721400000000000 -73.793200000000000 49370
Fri May 01 00:00:00 GMT 2015 laurob_St._John's_University__reporter6 Northern red oak Quercus rubra All Leaves Unfolded 40.721400000000000 -73.793200000000000 49371
Tue Apr 21 00:00:00 GMT 2015 laurob_St._John's_University__reporter6 Northern red oak Quercus rubra First Flower 40.721400000000000 -73.793200000000000 49372
Fri Apr 24 00:00:00 GMT 2015 laurob_St._John's_University__reporter6 Northern red oak Quercus rubra Full Flower 40.721400000000000 -73.793200000000000 49373
Mon May 04 00:00:00 GMT 2015 laurob_St._John's_University__reporter6 Northern red oak Quercus rubra 50% Color 40.721400000000000 -73.793200000000000 49378
Tue May 05 00:00:00 GMT 2015 Riccardino Northern red oak Quercus rubra Leaves Unfolding (Late) 41.256070000000000 -73.456930000000000 49297
Tue May 05 00:00:00 GMT 2015 Riccardino Northern red oak Quercus rubra Leaves Changing Color (None) 41.256070000000000 -73.456930000000000 49298
Tue May 05 00:00:00 GMT 2015 Riccardino Northern red oak Quercus rubra Leaves Dropping (None) 41.256070000000000 -73.456930000000000 49299
Tue May 05 00:00:00 GMT 2015 Riccardino Northern red oak Quercus rubra Flowers (Early) 41.256070000000000 -73.456930000000000 49300
Tue May 05 00:00:00 GMT 2015 Riccardino Northern red oak Quercus rubra Fruit (None) 41.256070000000000 -73.456930000000000 49301
Mon May 04 00:00:00 GMT 2015 Thunder Northern red oak Quercus rubra Leaves Unfolding (None) 42.848980000000000 -70.929500000000000 49448
Mon May 04 00:00:00 GMT 2015 Thunder Northern red oak Quercus rubra Leaves Changing Color (None) 42.848980000000000 -70.929500000000000 49449
Mon May 04 00:00:00 GMT 2015 Thunder Northern red oak Quercus rubra Leaves Dropping (None) 42.848980000000000 -70.929500000000000 49450
Mon May 04 00:00:00 GMT 2015 Thunder Northern red oak Quercus rubra Flowers (None) 42.848980000000000 -70.929500000000000 49451
Mon May 04 00:00:00 GMT 2015 Thunder Northern red oak Quercus rubra Fruit (None) 42.848980000000000 -70.929500000000000 49452
Sun May 10 00:00:00 GMT 2015 Riccardino Northern red oak Quercus rubra Leaves Unfolding (Late) 42.239400000000000 -71.003820000000000 49573
Sun May 10 00:00:00 GMT 2015 Riccardino Northern red oak Quercus rubra Leaves Changing Color (None) 42.239400000000000 -71.003820000000000 49574
Sun May 10 00:00:00 GMT 2015 Riccardino Northern red oak Quercus rubra Leaves Dropping (None) 42.239400000000000 -71.003820000000000 49575
Sun May 10 00:00:00 GMT 2015 Riccardino Northern red oak Quercus rubra Flowers (Middle) 42.239400000000000 -71.003820000000000 49576
Sun May 10 00:00:00 GMT 2015 Riccardino Northern red oak Quercus rubra Fruit (None) 42.239400000000000 -71.003820000000000 49577
Fri Apr 10 00:00:00 GMT 2015 Rayshawnmiller24 Northern red oak Quercus rubra Bud Burst 42.316210000000000 -71.084530000000000 50335
Wed Apr 15 00:00:00 GMT 2015 Rayshawnmiller24 Northern red oak Quercus rubra First Leaf 42.316210000000000 -71.084530000000000 50336
Thu Apr 30 00:00:00 GMT 2015 Rayshawnmiller24 Northern red oak Quercus rubra All Leaves Unfolded 42.316210000000000 -71.084530000000000 50337
Mon May 04 00:00:00 GMT 2015 Rayshawnmiller24 Northern red oak Quercus rubra First Flower 42.316210000000000 -71.084530000000000 50338
Tue May 12 00:00:00 GMT 2015 Rayshawnmiller24 Northern red oak Quercus rubra Full Flower 42.316210000000000 -71.084530000000000 50339
Tue Oct 14 00:00:00 GMT 2014 Rayshawnmiller24 Northern red oak Quercus rubra 50% Color 42.316210000000000 -71.084530000000000 50340
Wed Nov 05 00:00:00 GMT 2014 Rayshawnmiller24 Northern red oak Quercus rubra 50% Leaf Fall 42.316210000000000 -71.084530000000000 50341
Tue Oct 14 00:00:00 GMT 2014 Rayshawnmiller24 Northern red oak Quercus rubra 50% Color 42.316210000000000 -71.084530000000000 50351
Tue May 05 00:00:00 GMT 2015 morningstar78 Northern red oak Quercus rubra Bud Burst 44.739997000000000 -88.637459000000000 50545
Thu May 07 00:00:00 GMT 2015 morningstar78 Northern red oak Quercus rubra First Leaf 44.739997000000000 -88.637459000000000 50546
Mon May 11 00:00:00 GMT 2015 morningstar78 Northern red oak Quercus rubra All Leaves Unfolded 44.739997000000000 -88.637459000000000 50547
Fri May 08 00:00:00 GMT 2015 MsFBLA_BLA-Laviscount_Park_reporter16 Northern red oak Quercus rubra Bud Burst 42.316575000000000 -71.086242000000000 50590
Fri May 15 00:00:00 GMT 2015 MsFBLA_BLA-Laviscount_Park_reporter16 Northern red oak Quercus rubra First Leaf 42.316575000000000 -71.086242000000000 50591
Wed May 20 00:00:00 GMT 2015 MsFBLA_BLA-Laviscount_Park_reporter16 Northern red oak Quercus rubra All Leaves Unfolded 42.316575000000000 -71.086242000000000 50592
Fri Sep 19 00:00:00 GMT 2014 MsFBLA_BLA-Laviscount_Park_reporter16 Northern red oak Quercus rubra 50% Color 42.316575000000000 -71.086242000000000 50593
Fri Oct 03 00:00:00 GMT 2014 MsFBLA_BLA-Laviscount_Park_reporter16 Northern red oak Quercus rubra 50% Leaf Fall 42.316575000000000 -71.086242000000000 50594
Wed May 06 00:00:00 GMT 2015 KChapman Northern red oak Quercus rubra Leaves Unfolding (Middle) 41.677017000000000 -87.802617000000000 50649
Wed May 06 00:00:00 GMT 2015 KChapman Northern red oak Quercus rubra Leaves Changing Color (None) 41.677017000000000 -87.802617000000000 50650
Wed May 06 00:00:00 GMT 2015 KChapman Northern red oak Quercus rubra Leaves Dropping (None) 41.677017000000000 -87.802617000000000 50651
Wed May 06 00:00:00 GMT 2015 KChapman Northern red oak Quercus rubra Flowers (Early) 41.677017000000000 -87.802617000000000 50652
Wed May 06 00:00:00 GMT 2015 KChapman Northern red oak Quercus rubra Fruit (None) 41.677017000000000 -87.802617000000000 50653
Fri May 15 00:00:00 GMT 2015 KChapman Northern red oak Quercus rubra Leaves Unfolding (Late) 41.677017000000000 -87.802617000000000 50706
Fri May 15 00:00:00 GMT 2015 KChapman Northern red oak Quercus rubra Leaves Changing Color (None) 41.677017000000000 -87.802617000000000 50707
Fri May 15 00:00:00 GMT 2015 KChapman Northern red oak Quercus rubra Leaves Dropping (None) 41.677017000000000 -87.802617000000000 50708
Fri May 15 00:00:00 GMT 2015 KChapman Northern red oak Quercus rubra Flowers (None) 41.677017000000000 -87.802617000000000 50709
Fri May 15 00:00:00 GMT 2015 KChapman Northern red oak Quercus rubra Fruit (None) 41.677017000000000 -87.802617000000000 50710
Fri Apr 24 00:00:00 GMT 2015 scientistsin7thgrade Northern red oak Quercus rubra Bud Burst 42.742900000000000 -84.474000000000000 50995
Fri May 08 00:00:00 GMT 2015 scientistsin7thgrade Northern red oak Quercus rubra First Leaf 42.742900000000000 -84.474000000000000 50996
Fri May 15 00:00:00 GMT 2015 scientistsin7thgrade Northern red oak Quercus rubra All Leaves Unfolded 42.742900000000000 -84.474000000000000 50997
Thu Aug 07 00:00:00 GMT 2014 scientistsin7thgrade Northern red oak Quercus rubra First Flower 42.742900000000000 -84.474000000000000 50998
Wed Sep 03 00:00:00 GMT 2014 scientistsin7thgrade Northern red oak Quercus rubra Full Flower 42.742900000000000 -84.474000000000000 50999
Thu Sep 18 00:00:00 GMT 2014 scientistsin7thgrade Northern red oak Quercus rubra First Ripe Fruit 42.742900000000000 -84.474000000000000 51000
Thu Oct 02 00:00:00 GMT 2014 scientistsin7thgrade Northern red oak Quercus rubra Full Fruiting 42.742900000000000 -84.474000000000000 51001
Mon Oct 20 00:00:00 GMT 2014 scientistsin7thgrade Northern red oak Quercus rubra 50% Color 42.742900000000000 -84.474000000000000 51002
Thu Nov 06 00:00:00 GMT 2014 scientistsin7thgrade Northern red oak Quercus rubra 50% Leaf Fall 42.742900000000000 -84.474000000000000 51003
Tue Mar 17 00:00:00 GMT 2015 scientistsin7thgrade Northern red oak Quercus rubra Bud Burst 42.742900000000000 -84.474000000000000 50878
Fri May 08 00:00:00 GMT 2015 scientistsin7thgrade Northern red oak Quercus rubra First Leaf 42.742900000000000 -84.474000000000000 50879
Fri May 15 00:00:00 GMT 2015 scientistsin7thgrade Northern red oak Quercus rubra All Leaves Unfolded 42.742900000000000 -84.474000000000000 50880
Thu Oct 16 00:00:00 GMT 2014 scientistsin7thgrade Northern red oak Quercus rubra 50% Color 42.742900000000000 -84.474000000000000 50881
Thu Nov 13 00:00:00 GMT 2014 scientistsin7thgrade Northern red oak Quercus rubra 50% Leaf Fall 42.742900000000000 -84.474000000000000 50882
Wed May 06 00:00:00 GMT 2015 SRHSscience Northern red oak Quercus rubra Bud Burst 42.911300000000000 -71.074500000000000 51406
Fri May 08 00:00:00 GMT 2015 SRHSscience Northern red oak Quercus rubra First Leaf 42.911300000000000 -71.074500000000000 51407
Thu May 14 00:00:00 GMT 2015 SRHSscience Northern red oak Quercus rubra All Leaves Unfolded 42.911300000000000 -71.074500000000000 51408
Mon May 04 00:00:00 GMT 2015 SRHSscience Northern red oak Quercus rubra Bud Burst 42.912300000000000 -71.069700000000000 51401
Tue May 05 00:00:00 GMT 2015 SRHSscience Northern red oak Quercus rubra First Leaf 42.912300000000000 -71.069700000000000 51402
Wed May 06 00:00:00 GMT 2015 SRHSscience Northern red oak Quercus rubra All Leaves Unfolded 42.912300000000000 -71.069700000000000 51403
Fri May 08 00:00:00 GMT 2015 SRHSscience Northern red oak Quercus rubra First Flower 42.912300000000000 -71.069700000000000 51404
Tue May 12 00:00:00 GMT 2015 SRHSscience Northern red oak Quercus rubra Full Flower 42.912300000000000 -71.069700000000000 51405
Thu Sep 17 00:00:00 GMT 2015 KChapman Northern red oak Quercus rubra Leaves Unfolding (Late) 41.677017000000000 -87.802617000000000 53363
Thu Sep 17 00:00:00 GMT 2015 KChapman Northern red oak Quercus rubra Leaves Changing Color (None) 41.677017000000000 -87.802617000000000 53364
Thu Sep 17 00:00:00 GMT 2015 KChapman Northern red oak Quercus rubra Leaves Dropping (None) 41.677017000000000 -87.802617000000000 53365
Thu Sep 17 00:00:00 GMT 2015 KChapman Northern red oak Quercus rubra Flowers (None) 41.677017000000000 -87.802617000000000 53366
Thu Sep 17 00:00:00 GMT 2015 KChapman Northern red oak Quercus rubra Fruit (None) 41.677017000000000 -87.802617000000000 53367
Fri Sep 25 00:00:00 GMT 2015 KChapman Northern red oak Quercus rubra Leaves Unfolding (Late) 41.677017000000000 -87.802617000000000 53471
Fri Sep 25 00:00:00 GMT 2015 KChapman Northern red oak Quercus rubra Flowers (None) 41.677017000000000 -87.802617000000000 53474
Fri Sep 25 00:00:00 GMT 2015 KChapman Northern red oak Quercus rubra Leaves Changing Color (None) 41.677017000000000 -87.802617000000000 53472
Fri Sep 25 00:00:00 GMT 2015 KChapman Northern red oak Quercus rubra Leaves Dropping (Early) 41.677017000000000 -87.802617000000000 53473
Fri Sep 25 00:00:00 GMT 2015 KChapman Northern red oak Quercus rubra Fruit (None) 41.677017000000000 -87.802617000000000 53475
Mon Sep 21 00:00:00 GMT 2015 MrsPavlovic_DCS_Trail_-_Red_Oak_Flats_reporter4 Northern red oak Quercus rubra Leaves Unfolding (Late) 41.640167000000000 -87.053544000000000 53710
Mon Sep 21 00:00:00 GMT 2015 MrsPavlovic_DCS_Trail_-_Red_Oak_Flats_reporter4 Northern red oak Quercus rubra Leaves Changing Color (None) 41.640167000000000 -87.053544000000000 53711
Mon Sep 21 00:00:00 GMT 2015 MrsPavlovic_DCS_Trail_-_Red_Oak_Flats_reporter4 Northern red oak Quercus rubra Leaves Dropping (None) 41.640167000000000 -87.053544000000000 53712
Mon Sep 21 00:00:00 GMT 2015 MrsPavlovic_DCS_Trail_-_Red_Oak_Flats_reporter4 Northern red oak Quercus rubra Flowers (Late) 41.640167000000000 -87.053544000000000 53713
Mon Sep 21 00:00:00 GMT 2015 MrsPavlovic_DCS_Trail_-_Red_Oak_Flats_reporter4 Northern red oak Quercus rubra Fruit (None) 41.640167000000000 -87.053544000000000 53714
Thu Oct 01 00:00:00 GMT 2015 KChapman Northern red oak Quercus rubra Leaves Unfolding (Late) 41.677017000000000 -87.802617000000000 54336
Thu Oct 01 00:00:00 GMT 2015 KChapman Northern red oak Quercus rubra Leaves Changing Color (None) 41.677017000000000 -87.802617000000000 54337
Thu Oct 01 00:00:00 GMT 2015 KChapman Northern red oak Quercus rubra Leaves Dropping (None) 41.677017000000000 -87.802617000000000 54338
Thu Oct 01 00:00:00 GMT 2015 KChapman Northern red oak Quercus rubra Flowers (None) 41.677017000000000 -87.802617000000000 54339
Thu Oct 01 00:00:00 GMT 2015 KChapman Northern red oak Quercus rubra Fruit (None) 41.677017000000000 -87.802617000000000 54340
Thu Oct 15 00:00:00 GMT 2015 KChapman Northern red oak Quercus rubra Leaves Unfolding (Late) 41.677017000000000 -87.802617000000000 54374
Thu Oct 15 00:00:00 GMT 2015 KChapman Northern red oak Quercus rubra Leaves Changing Color (None) 41.677017000000000 -87.802617000000000 54375
Thu Oct 15 00:00:00 GMT 2015 KChapman Northern red oak Quercus rubra Leaves Dropping (None) 41.677017000000000 -87.802617000000000 54376
Thu Oct 15 00:00:00 GMT 2015 KChapman Northern red oak Quercus rubra Flowers (None) 41.677017000000000 -87.802617000000000 54377
Thu Oct 15 00:00:00 GMT 2015 KChapman Northern red oak Quercus rubra Fruit (None) 41.677017000000000 -87.802617000000000 54378
Tue Oct 20 00:00:00 GMT 2015 kgarbach_Loyola_University_Chicago_reporter222 Northern red oak Quercus rubra Leaves Unfolding (Late) 41.999779000000000 -87.656744000000000 54585
Tue Oct 20 00:00:00 GMT 2015 kgarbach_Loyola_University_Chicago_reporter222 Northern red oak Quercus rubra Leaves Changing Color (Early) 41.999779000000000 -87.656744000000000 54586
Tue Oct 20 00:00:00 GMT 2015 kgarbach_Loyola_University_Chicago_reporter222 Northern red oak Quercus rubra Leaves Dropping (None) 41.999779000000000 -87.656744000000000 54587
Tue Oct 20 00:00:00 GMT 2015 kgarbach_Loyola_University_Chicago_reporter222 Northern red oak Quercus rubra Flowers (None) 41.999779000000000 -87.656744000000000 54588
Tue Oct 20 00:00:00 GMT 2015 kgarbach_Loyola_University_Chicago_reporter222 Northern red oak Quercus rubra Fruit (None) 41.999779000000000 -87.656744000000000 54589
Tue Oct 20 00:00:00 GMT 2015 kgarbach_Loyola_University_Chicago_reporter200 Northern red oak Quercus rubra Leaves Unfolding (Late) 40.000000000000000 -100.000000000000000 54592
Tue Oct 20 00:00:00 GMT 2015 kgarbach_Loyola_University_Chicago_reporter200 Northern red oak Quercus rubra Leaves Changing Color (Early) 40.000000000000000 -100.000000000000000 54594
Tue Oct 20 00:00:00 GMT 2015 kgarbach_Loyola_University_Chicago_reporter200 Northern red oak Quercus rubra Leaves Dropping (None) 40.000000000000000 -100.000000000000000 54596
Tue Oct 20 00:00:00 GMT 2015 kgarbach_Loyola_University_Chicago_reporter200 Northern red oak Quercus rubra Flowers (None) 40.000000000000000 -100.000000000000000 54598
Tue Oct 20 00:00:00 GMT 2015 kgarbach_Loyola_University_Chicago_reporter200 Northern red oak Quercus rubra Fruit (None) 40.000000000000000 -100.000000000000000 54599
Wed Sep 23 00:00:00 GMT 2015 kgarbach_Loyola_University_Chicago_reporter206 Northern red oak Quercus rubra Leaves Unfolding (Late) 41.998599000000000 -87.655083000000000 54625
Wed Sep 23 00:00:00 GMT 2015 kgarbach_Loyola_University_Chicago_reporter206 Northern red oak Quercus rubra Leaves Changing Color (None) 41.998599000000000 -87.655083000000000 54626
Wed Sep 23 00:00:00 GMT 2015 kgarbach_Loyola_University_Chicago_reporter206 Northern red oak Quercus rubra Leaves Dropping (None) 41.998599000000000 -87.655083000000000 54627
Wed Sep 23 00:00:00 GMT 2015 kgarbach_Loyola_University_Chicago_reporter206 Northern red oak Quercus rubra Flowers (None) 41.998599000000000 -87.655083000000000 54628
Wed Sep 23 00:00:00 GMT 2015 kgarbach_Loyola_University_Chicago_reporter206 Northern red oak Quercus rubra Fruit (None) 41.998599000000000 -87.655083000000000 54629
Tue Oct 20 00:00:00 GMT 2015 kgarbach_Loyola_University_Chicago_reporter217 Northern red oak Quercus rubra Leaves Unfolding (Early) 41.990130000000000 -87.663050000000000 54610
Tue Oct 20 00:00:00 GMT 2015 kgarbach_Loyola_University_Chicago_reporter217 Northern red oak Quercus rubra Leaves Changing Color (Early) 41.990130000000000 -87.663050000000000 54611
Tue Oct 20 00:00:00 GMT 2015 kgarbach_Loyola_University_Chicago_reporter217 Northern red oak Quercus rubra Leaves Dropping (None) 41.990130000000000 -87.663050000000000 54612
Tue Oct 20 00:00:00 GMT 2015 kgarbach_Loyola_University_Chicago_reporter217 Northern red oak Quercus rubra Flowers (None) 41.990130000000000 -87.663050000000000 54613
Tue Oct 20 00:00:00 GMT 2015 kgarbach_Loyola_University_Chicago_reporter217 Northern red oak Quercus rubra Fruit (None) 41.990130000000000 -87.663050000000000 54614
Wed Oct 21 00:00:00 GMT 2015 kgarbach_Loyola_University_Chicago_reporter228 Northern red oak Quercus rubra Leaves Unfolding (Middle) 41.998667000000000 -87.655967000000000 54682
Wed Oct 21 00:00:00 GMT 2015 kgarbach_Loyola_University_Chicago_reporter228 Northern red oak Quercus rubra Leaves Changing Color (None) 41.998667000000000 -87.655967000000000 54683
Wed Oct 21 00:00:00 GMT 2015 kgarbach_Loyola_University_Chicago_reporter228 Northern red oak Quercus rubra Leaves Dropping (Early) 41.998667000000000 -87.655967000000000 54684
Wed Oct 21 00:00:00 GMT 2015 kgarbach_Loyola_University_Chicago_reporter228 Northern red oak Quercus rubra Flowers (None) 41.998667000000000 -87.655967000000000 54685
Wed Oct 21 00:00:00 GMT 2015 kgarbach_Loyola_University_Chicago_reporter228 Northern red oak Quercus rubra Fruit (None) 41.998667000000000 -87.655967000000000 54686
Thu Sep 17 00:00:00 GMT 2015 kgarbach_Loyola_University_Chicago_reporter195 Northern red oak Quercus rubra Leaves Unfolding (None) 41.998336000000000 -87.655969000000000 54742
Thu Sep 17 00:00:00 GMT 2015 kgarbach_Loyola_University_Chicago_reporter195 Northern red oak Quercus rubra Leaves Changing Color (None) 41.998336000000000 -87.655969000000000 54743
Thu Sep 17 00:00:00 GMT 2015 kgarbach_Loyola_University_Chicago_reporter195 Northern red oak Quercus rubra Leaves Dropping (None) 41.998336000000000 -87.655969000000000 54744
Thu Sep 17 00:00:00 GMT 2015 kgarbach_Loyola_University_Chicago_reporter195 Northern red oak Quercus rubra Flowers (None) 41.998336000000000 -87.655969000000000 54745
Thu Sep 17 00:00:00 GMT 2015 kgarbach_Loyola_University_Chicago_reporter195 Northern red oak Quercus rubra Fruit (None) 41.998336000000000 -87.655969000000000 54746
Tue Oct 27 00:00:00 GMT 2015 kgarbach_Loyola_University_Chicago_reporter217 Northern red oak Quercus rubra Leaves Unfolding (Late) 41.990130000000000 -87.663050000000000 55065
Tue Oct 27 00:00:00 GMT 2015 kgarbach_Loyola_University_Chicago_reporter217 Northern red oak Quercus rubra Leaves Changing Color (Middle) 41.990130000000000 -87.663050000000000 55066
Tue Oct 27 00:00:00 GMT 2015 kgarbach_Loyola_University_Chicago_reporter217 Northern red oak Quercus rubra Leaves Dropping (None) 41.990130000000000 -87.663050000000000 55067
Tue Oct 27 00:00:00 GMT 2015 kgarbach_Loyola_University_Chicago_reporter217 Northern red oak Quercus rubra Flowers (None) 41.990130000000000 -87.663050000000000 55068
Tue Oct 27 00:00:00 GMT 2015 kgarbach_Loyola_University_Chicago_reporter217 Northern red oak Quercus rubra Fruit (None) 41.990130000000000 -87.663050000000000 55069
Wed Oct 28 00:00:00 GMT 2015 kgarbach_Loyola_University_Chicago_reporter206 Northern red oak Quercus rubra Leaves Unfolding (Late) 41.998452000000000 -87.655651000000000 55082
Wed Oct 28 00:00:00 GMT 2015 kgarbach_Loyola_University_Chicago_reporter206 Northern red oak Quercus rubra Leaves Changing Color (Middle) 41.998452000000000 -87.655651000000000 55083
Wed Oct 28 00:00:00 GMT 2015 kgarbach_Loyola_University_Chicago_reporter206 Northern red oak Quercus rubra Leaves Dropping (Early) 41.998452000000000 -87.655651000000000 55084
Wed Oct 28 00:00:00 GMT 2015 kgarbach_Loyola_University_Chicago_reporter206 Northern red oak Quercus rubra Flowers (None) 41.998452000000000 -87.655651000000000 55085
Wed Oct 28 00:00:00 GMT 2015 kgarbach_Loyola_University_Chicago_reporter206 Northern red oak Quercus rubra Fruit (None) 41.998452000000000 -87.655651000000000 55086
Thu Oct 15 00:00:00 GMT 2015 kgarbach_Loyola_University_Chicago_reporter206 Northern red oak Quercus rubra Leaves Unfolding (Late) 41.998452000000000 -87.655651000000000 55077
Thu Oct 15 00:00:00 GMT 2015 kgarbach_Loyola_University_Chicago_reporter206 Northern red oak Quercus rubra Leaves Changing Color (Early) 41.998452000000000 -87.655651000000000 55078
Thu Oct 15 00:00:00 GMT 2015 kgarbach_Loyola_University_Chicago_reporter206 Northern red oak Quercus rubra Leaves Dropping (None) 41.998452000000000 -87.655651000000000 55079
Thu Oct 15 00:00:00 GMT 2015 kgarbach_Loyola_University_Chicago_reporter206 Northern red oak Quercus rubra Flowers (None) 41.998452000000000 -87.655651000000000 55080
Thu Oct 15 00:00:00 GMT 2015 kgarbach_Loyola_University_Chicago_reporter206 Northern red oak Quercus rubra Fruit (None) 41.998452000000000 -87.655651000000000 55081
Thu Oct 29 00:00:00 GMT 2015 kgarbach_Loyola_University_Chicago_reporter228 Northern red oak Quercus rubra Leaves Unfolding (Middle) 41.998679000000000 -87.655989000000000 55137
Thu Oct 29 00:00:00 GMT 2015 kgarbach_Loyola_University_Chicago_reporter228 Northern red oak Quercus rubra Leaves Changing Color (Early) 41.998679000000000 -87.655989000000000 55138
Thu Oct 29 00:00:00 GMT 2015 kgarbach_Loyola_University_Chicago_reporter228 Northern red oak Quercus rubra Leaves Dropping (Early) 41.998679000000000 -87.655989000000000 55139
Thu Oct 29 00:00:00 GMT 2015 kgarbach_Loyola_University_Chicago_reporter228 Northern red oak Quercus rubra Flowers (None) 41.998679000000000 -87.655989000000000 55140
Thu Oct 29 00:00:00 GMT 2015 kgarbach_Loyola_University_Chicago_reporter228 Northern red oak Quercus rubra Fruit (None) 41.998679000000000 -87.655989000000000 55141
Thu Oct 29 00:00:00 GMT 2015 kgarbach_Loyola_University_Chicago_reporter200 Northern red oak Quercus rubra Leaves Unfolding (Late) 40.000000000000000 -100.000000000000000 55107
Thu Oct 29 00:00:00 GMT 2015 kgarbach_Loyola_University_Chicago_reporter200 Northern red oak Quercus rubra Leaves Changing Color (Middle) 40.000000000000000 -100.000000000000000 55108
Thu Oct 29 00:00:00 GMT 2015 kgarbach_Loyola_University_Chicago_reporter200 Northern red oak Quercus rubra Leaves Dropping (Early) 40.000000000000000 -100.000000000000000 55109
Thu Oct 29 00:00:00 GMT 2015 kgarbach_Loyola_University_Chicago_reporter200 Northern red oak Quercus rubra Flowers (None) 40.000000000000000 -100.000000000000000 55110
Thu Oct 29 00:00:00 GMT 2015 kgarbach_Loyola_University_Chicago_reporter200 Northern red oak Quercus rubra Fruit (None) 40.000000000000000 -100.000000000000000 55111
Tue Nov 03 00:00:00 GMT 2015 kgarbach_Loyola_University_Chicago_reporter189 Northern red oak Quercus rubra Leaves Unfolding (Late) 41.999890000000000 -87.657840000000000 55404
Tue Nov 03 00:00:00 GMT 2015 kgarbach_Loyola_University_Chicago_reporter189 Northern red oak Quercus rubra Leaves Changing Color (Late) 41.999890000000000 -87.657840000000000 55405
Tue Nov 03 00:00:00 GMT 2015 kgarbach_Loyola_University_Chicago_reporter189 Northern red oak Quercus rubra Leaves Dropping (Early) 41.999890000000000 -87.657840000000000 55406
Tue Nov 03 00:00:00 GMT 2015 kgarbach_Loyola_University_Chicago_reporter189 Northern red oak Quercus rubra Flowers (None) 41.999890000000000 -87.657840000000000 55407
Tue Nov 03 00:00:00 GMT 2015 kgarbach_Loyola_University_Chicago_reporter189 Northern red oak Quercus rubra Fruit (None) 41.999890000000000 -87.657840000000000 55408
Wed Nov 04 00:00:00 GMT 2015 rshuman Northern red oak Quercus rubra Leaves Unfolding (Late) 44.663684000000000 -73.757657000000000 55545
Wed Nov 04 00:00:00 GMT 2015 rshuman Northern red oak Quercus rubra Leaves Changing Color (Late) 44.663684000000000 -73.757657000000000 55546
Wed Nov 04 00:00:00 GMT 2015 rshuman Northern red oak Quercus rubra Leaves Dropping (Early) 44.663684000000000 -73.757657000000000 55547
Wed Nov 04 00:00:00 GMT 2015 rshuman Northern red oak Quercus rubra Flowers (None) 44.663684000000000 -73.757657000000000 55548
Wed Nov 04 00:00:00 GMT 2015 rshuman Northern red oak Quercus rubra Fruit (None) 44.663684000000000 -73.757657000000000 55549
Wed Nov 04 00:00:00 GMT 2015 rshuman Northern red oak Quercus rubra Leaves Unfolding (Middle) 44.688830000000000 -73.567670000000000 55851
Wed Nov 04 00:00:00 GMT 2015 rshuman Northern red oak Quercus rubra Leaves Changing Color (Early) 44.688830000000000 -73.567670000000000 55852
Wed Nov 04 00:00:00 GMT 2015 rshuman Northern red oak Quercus rubra Leaves Dropping (Middle) 44.688830000000000 -73.567670000000000 55853
Wed Nov 04 00:00:00 GMT 2015 rshuman Northern red oak Quercus rubra Flowers (None) 44.688830000000000 -73.567670000000000 55854
Wed Nov 04 00:00:00 GMT 2015 rshuman Northern red oak Quercus rubra Fruit (None) 44.688830000000000 -73.567670000000000 55855
Wed Nov 04 00:00:00 GMT 2015 rshuman Northern red oak Quercus rubra Leaves Unfolding (Early) 44.660410000000000 -73.736460000000000 55839
Wed Nov 04 00:00:00 GMT 2015 rshuman Northern red oak Quercus rubra Leaves Changing Color (Middle) 44.660410000000000 -73.736460000000000 55840
Wed Nov 04 00:00:00 GMT 2015 rshuman Northern red oak Quercus rubra Leaves Dropping (Middle) 44.660410000000000 -73.736460000000000 55841
Wed Nov 04 00:00:00 GMT 2015 rshuman Northern red oak Quercus rubra Flowers (None) 44.660410000000000 -73.736460000000000 55842
Wed Nov 04 00:00:00 GMT 2015 rshuman Northern red oak Quercus rubra Fruit (None) 44.660410000000000 -73.736460000000000 55843
Wed Nov 04 00:00:00 GMT 2015 rshuman Northern red oak Quercus rubra Leaves Unfolding (Late) 44.698100000000000 -73.631530000000000 56376
Wed Nov 04 00:00:00 GMT 2015 rshuman Northern red oak Quercus rubra Leaves Changing Color (Late) 44.698100000000000 -73.631530000000000 56377
Wed Nov 04 00:00:00 GMT 2015 rshuman Northern red oak Quercus rubra Leaves Dropping (Middle) 44.698100000000000 -73.631530000000000 56378
Wed Nov 04 00:00:00 GMT 2015 rshuman Northern red oak Quercus rubra Flowers (None) 44.698100000000000 -73.631530000000000 56379
Wed Nov 04 00:00:00 GMT 2015 rshuman Northern red oak Quercus rubra Fruit (None) 44.698100000000000 -73.631530000000000 56380
Tue Nov 03 00:00:00 GMT 2015 kgarbach_Loyola_University_Chicago_reporter217 Northern red oak Quercus rubra Leaves Unfolding (None) 41.990130000000000 -87.663050000000000 55414
Tue Nov 03 00:00:00 GMT 2015 kgarbach_Loyola_University_Chicago_reporter217 Northern red oak Quercus rubra Leaves Changing Color (Middle) 41.990130000000000 -87.663050000000000 55415
Tue Nov 03 00:00:00 GMT 2015 kgarbach_Loyola_University_Chicago_reporter217 Northern red oak Quercus rubra Leaves Dropping (Early) 41.990130000000000 -87.663050000000000 55416
Tue Nov 03 00:00:00 GMT 2015 kgarbach_Loyola_University_Chicago_reporter217 Northern red oak Quercus rubra Flowers (None) 41.990130000000000 -87.663050000000000 55417
Tue Nov 03 00:00:00 GMT 2015 kgarbach_Loyola_University_Chicago_reporter217 Northern red oak Quercus rubra Fruit (None) 41.990130000000000 -87.663050000000000 55418
Wed Nov 04 00:00:00 GMT 2015 kgarbach_Loyola_University_Chicago_reporter206 Northern red oak Quercus rubra Leaves Unfolding (Late) 41.998452000000000 -87.655651000000000 56465
Wed Nov 04 00:00:00 GMT 2015 kgarbach_Loyola_University_Chicago_reporter206 Northern red oak Quercus rubra Leaves Changing Color (Late) 41.998452000000000 -87.655651000000000 56466
Wed Nov 04 00:00:00 GMT 2015 kgarbach_Loyola_University_Chicago_reporter206 Northern red oak Quercus rubra Leaves Dropping (Early) 41.998452000000000 -87.655651000000000 56467
Wed Nov 04 00:00:00 GMT 2015 kgarbach_Loyola_University_Chicago_reporter206 Northern red oak Quercus rubra Flowers (None) 41.998452000000000 -87.655651000000000 56468
Wed Nov 04 00:00:00 GMT 2015 kgarbach_Loyola_University_Chicago_reporter206 Northern red oak Quercus rubra Fruit (None) 41.998452000000000 -87.655651000000000 56469
Tue Nov 03 00:00:00 GMT 2015 kgarbach_Loyola_University_Chicago_reporter217 Northern red oak Quercus rubra Leaves Unfolding (None) 41.990130000000000 -87.663050000000000 56595
Tue Nov 03 00:00:00 GMT 2015 kgarbach_Loyola_University_Chicago_reporter217 Northern red oak Quercus rubra Leaves Changing Color (Late) 41.990130000000000 -87.663050000000000 56596
Tue Nov 03 00:00:00 GMT 2015 kgarbach_Loyola_University_Chicago_reporter217 Northern red oak Quercus rubra Leaves Dropping (None) 41.990130000000000 -87.663050000000000 56597
Tue Nov 03 00:00:00 GMT 2015 kgarbach_Loyola_University_Chicago_reporter217 Northern red oak Quercus rubra Flowers (None) 41.990130000000000 -87.663050000000000 56598
Tue Nov 03 00:00:00 GMT 2015 kgarbach_Loyola_University_Chicago_reporter217 Northern red oak Quercus rubra Fruit (None) 41.990130000000000 -87.663050000000000 56599
Thu Nov 05 00:00:00 GMT 2015 kgarbach_Loyola_University_Chicago_reporter217 Northern red oak Quercus rubra Leaves Unfolding (None) 41.990130000000000 -87.663050000000000 56600
Thu Nov 05 00:00:00 GMT 2015 kgarbach_Loyola_University_Chicago_reporter217 Northern red oak Quercus rubra Leaves Changing Color (Late) 41.990130000000000 -87.663050000000000 56601
Thu Nov 05 00:00:00 GMT 2015 kgarbach_Loyola_University_Chicago_reporter217 Northern red oak Quercus rubra Leaves Dropping (Early) 41.990130000000000 -87.663050000000000 56602
Thu Nov 05 00:00:00 GMT 2015 kgarbach_Loyola_University_Chicago_reporter217 Northern red oak Quercus rubra Flowers (None) 41.990130000000000 -87.663050000000000 56603
Thu Nov 05 00:00:00 GMT 2015 kgarbach_Loyola_University_Chicago_reporter217 Northern red oak Quercus rubra Fruit (None) 41.990130000000000 -87.663050000000000 56604
Wed Nov 04 00:00:00 GMT 2015 kgarbach_Loyola_University_Chicago_reporter228 Northern red oak Quercus rubra Leaves Unfolding (Early) 41.998665000000000 -87.655964000000000 56699
Wed Nov 04 00:00:00 GMT 2015 kgarbach_Loyola_University_Chicago_reporter228 Northern red oak Quercus rubra Leaves Changing Color (Middle) 41.998665000000000 -87.655964000000000 56700
Wed Nov 04 00:00:00 GMT 2015 kgarbach_Loyola_University_Chicago_reporter228 Northern red oak Quercus rubra Leaves Dropping (Early) 41.998665000000000 -87.655964000000000 56701
Wed Nov 04 00:00:00 GMT 2015 kgarbach_Loyola_University_Chicago_reporter228 Northern red oak Quercus rubra Flowers (None) 41.998665000000000 -87.655964000000000 56702
Wed Nov 04 00:00:00 GMT 2015 kgarbach_Loyola_University_Chicago_reporter228 Northern red oak Quercus rubra Fruit (None) 41.998665000000000 -87.655964000000000 56703
Wed Nov 11 00:00:00 GMT 2015 kgarbach_Loyola_University_Chicago_reporter228 Northern red oak Quercus rubra Leaves Unfolding (Early) 41.998669000000000 -87.655971000000000 56704
Wed Nov 11 00:00:00 GMT 2015 kgarbach_Loyola_University_Chicago_reporter228 Northern red oak Quercus rubra Leaves Changing Color (Late) 41.998669000000000 -87.655971000000000 56705
Wed Nov 11 00:00:00 GMT 2015 kgarbach_Loyola_University_Chicago_reporter228 Northern red oak Quercus rubra Leaves Dropping (Middle) 41.998669000000000 -87.655971000000000 56706
Wed Nov 11 00:00:00 GMT 2015 kgarbach_Loyola_University_Chicago_reporter228 Northern red oak Quercus rubra Flowers (None) 41.998669000000000 -87.655971000000000 56707
Wed Nov 11 00:00:00 GMT 2015 kgarbach_Loyola_University_Chicago_reporter228 Northern red oak Quercus rubra Fruit (None) 41.998669000000000 -87.655971000000000 56708
Wed Oct 14 00:00:00 GMT 2015 kgarbach_Loyola_University_Chicago_reporter222 Northern red oak Quercus rubra Leaves Unfolding (Late) 41.999823000000000 -87.656702000000000 56749
Wed Oct 14 00:00:00 GMT 2015 kgarbach_Loyola_University_Chicago_reporter222 Northern red oak Quercus rubra Leaves Changing Color (Middle) 41.999823000000000 -87.656702000000000 56750
Wed Oct 14 00:00:00 GMT 2015 kgarbach_Loyola_University_Chicago_reporter222 Northern red oak Quercus rubra Leaves Dropping (None) 41.999823000000000 -87.656702000000000 56751
Wed Oct 14 00:00:00 GMT 2015 kgarbach_Loyola_University_Chicago_reporter222 Northern red oak Quercus rubra Flowers (None) 41.999823000000000 -87.656702000000000 56752
Wed Oct 14 00:00:00 GMT 2015 kgarbach_Loyola_University_Chicago_reporter222 Northern red oak Quercus rubra Fruit (None) 41.999823000000000 -87.656702000000000 56753
Wed Oct 21 00:00:00 GMT 2015 kgarbach_Loyola_University_Chicago_reporter222 Northern red oak Quercus rubra Leaves Unfolding (Late) 41.999847000000000 -87.656663000000000 56754
Wed Oct 21 00:00:00 GMT 2015 kgarbach_Loyola_University_Chicago_reporter222 Northern red oak Quercus rubra Leaves Changing Color (Late) 41.999847000000000 -87.656663000000000 56755
Wed Oct 21 00:00:00 GMT 2015 kgarbach_Loyola_University_Chicago_reporter222 Northern red oak Quercus rubra Leaves Dropping (Early) 41.999847000000000 -87.656663000000000 56756
Wed Oct 21 00:00:00 GMT 2015 kgarbach_Loyola_University_Chicago_reporter222 Northern red oak Quercus rubra Flowers (None) 41.999847000000000 -87.656663000000000 56757
Wed Oct 21 00:00:00 GMT 2015 kgarbach_Loyola_University_Chicago_reporter222 Northern red oak Quercus rubra Fruit (None) 41.999847000000000 -87.656663000000000 56758
Tue Nov 03 00:00:00 GMT 2015 kgarbach_Loyola_University_Chicago_reporter222 Northern red oak Quercus rubra Leaves Unfolding (None) 41.999847000000000 -87.656663000000000 56759
Tue Nov 03 00:00:00 GMT 2015 kgarbach_Loyola_University_Chicago_reporter222 Northern red oak Quercus rubra Leaves Changing Color (Late) 41.999847000000000 -87.656663000000000 56760
Tue Nov 03 00:00:00 GMT 2015 kgarbach_Loyola_University_Chicago_reporter222 Northern red oak Quercus rubra Leaves Dropping (Middle) 41.999847000000000 -87.656663000000000 56761
Tue Nov 03 00:00:00 GMT 2015 kgarbach_Loyola_University_Chicago_reporter222 Northern red oak Quercus rubra Flowers (None) 41.999847000000000 -87.656663000000000 56762
Tue Nov 03 00:00:00 GMT 2015 kgarbach_Loyola_University_Chicago_reporter222 Northern red oak Quercus rubra Fruit (None) 41.999847000000000 -87.656663000000000 56763
Mon Nov 09 00:00:00 GMT 2015 kgarbach_Loyola_University_Chicago_reporter195 Northern red oak Quercus rubra Leaves Unfolding (Late) 41.998443000000000 -87.655693000000000 56634
Mon Nov 09 00:00:00 GMT 2015 kgarbach_Loyola_University_Chicago_reporter195 Northern red oak Quercus rubra Leaves Changing Color (Late) 41.998443000000000 -87.655693000000000 56635
Mon Nov 09 00:00:00 GMT 2015 kgarbach_Loyola_University_Chicago_reporter195 Northern red oak Quercus rubra Leaves Dropping (Middle) 41.998443000000000 -87.655693000000000 56636
Mon Nov 09 00:00:00 GMT 2015 kgarbach_Loyola_University_Chicago_reporter195 Northern red oak Quercus rubra Flowers (None) 41.998443000000000 -87.655693000000000 56637
Mon Nov 09 00:00:00 GMT 2015 kgarbach_Loyola_University_Chicago_reporter195 Northern red oak Quercus rubra Fruit (None) 41.998443000000000 -87.655693000000000 56638
Thu Oct 29 00:00:00 GMT 2015 kgarbach_Loyola_University_Chicago_reporter195 Northern red oak Quercus rubra Leaves Unfolding (Late) 41.998430000000000 -87.655662000000000 56624
Thu Oct 29 00:00:00 GMT 2015 kgarbach_Loyola_University_Chicago_reporter195 Northern red oak Quercus rubra Leaves Changing Color (Middle) 41.998430000000000 -87.655662000000000 56625
Thu Oct 29 00:00:00 GMT 2015 kgarbach_Loyola_University_Chicago_reporter195 Northern red oak Quercus rubra Leaves Dropping (Early) 41.998430000000000 -87.655662000000000 56626
Thu Oct 29 00:00:00 GMT 2015 kgarbach_Loyola_University_Chicago_reporter195 Northern red oak Quercus rubra Flowers (None) 41.998430000000000 -87.655662000000000 56627
Thu Oct 29 00:00:00 GMT 2015 kgarbach_Loyola_University_Chicago_reporter195 Northern red oak Quercus rubra Fruit (None) 41.998430000000000 -87.655662000000000 56628
Thu Oct 22 00:00:00 GMT 2015 kgarbach_Loyola_University_Chicago_reporter195 Northern red oak Quercus rubra Leaves Unfolding (Late) 41.998475000000000 -87.655674000000000 56619
Thu Oct 22 00:00:00 GMT 2015 kgarbach_Loyola_University_Chicago_reporter195 Northern red oak Quercus rubra Leaves Changing Color (Early) 41.998475000000000 -87.655674000000000 56620
Thu Oct 22 00:00:00 GMT 2015 kgarbach_Loyola_University_Chicago_reporter195 Northern red oak Quercus rubra Leaves Dropping (None) 41.998475000000000 -87.655674000000000 56621
Thu Oct 22 00:00:00 GMT 2015 kgarbach_Loyola_University_Chicago_reporter195 Northern red oak Quercus rubra Flowers (None) 41.998475000000000 -87.655674000000000 56622
Thu Oct 22 00:00:00 GMT 2015 kgarbach_Loyola_University_Chicago_reporter195 Northern red oak Quercus rubra Fruit (None) 41.998475000000000 -87.655674000000000 56623
Thu Nov 12 00:00:00 GMT 2015 kgarbach_Loyola_University_Chicago_reporter189 Northern red oak Quercus rubra Leaves Unfolding (None) 41.999890000000000 -87.657840000000000 56978
Thu Nov 12 00:00:00 GMT 2015 kgarbach_Loyola_University_Chicago_reporter189 Northern red oak Quercus rubra Leaves Changing Color (Late) 41.999890000000000 -87.657840000000000 56979
Thu Nov 12 00:00:00 GMT 2015 kgarbach_Loyola_University_Chicago_reporter189 Northern red oak Quercus rubra Leaves Dropping (Late) 41.999890000000000 -87.657840000000000 56980
Thu Nov 12 00:00:00 GMT 2015 kgarbach_Loyola_University_Chicago_reporter189 Northern red oak Quercus rubra Flowers (None) 41.999890000000000 -87.657840000000000 56981
Thu Nov 12 00:00:00 GMT 2015 kgarbach_Loyola_University_Chicago_reporter189 Northern red oak Quercus rubra Fruit (None) 41.999890000000000 -87.657840000000000 56982
Wed Nov 11 00:00:00 GMT 2015 fishstic Northern red oak Quercus rubra Leaves Unfolding (Late) 44.603038000000000 -119.631886000000000 56783
Wed Nov 11 00:00:00 GMT 2015 fishstic Northern red oak Quercus rubra Leaves Changing Color (Late) 44.603038000000000 -119.631886000000000 56784
Wed Nov 11 00:00:00 GMT 2015 fishstic Northern red oak Quercus rubra Leaves Dropping (None) 44.603038000000000 -119.631886000000000 56785
Wed Nov 11 00:00:00 GMT 2015 fishstic Northern red oak Quercus rubra Flowers (None) 44.603038000000000 -119.631886000000000 56786
Wed Nov 11 00:00:00 GMT 2015 fishstic Northern red oak Quercus rubra Fruit (None) 44.603038000000000 -119.631886000000000 56787
Wed Sep 30 00:00:00 GMT 2015 ikekastner Northern red oak Quercus rubra Bud Burst 39.200000000000000 -86.500000000000000 57187
Wed Sep 30 00:00:00 GMT 2015 ikekastner Northern red oak Quercus rubra First Leaf 39.200000000000000 -86.500000000000000 57188
Wed Sep 30 00:00:00 GMT 2015 ikekastner Northern red oak Quercus rubra All Leaves Unfolded 39.200000000000000 -86.500000000000000 57189
Wed Sep 30 00:00:00 GMT 2015 ikekastner Northern red oak Quercus rubra First Flower 39.200000000000000 -86.500000000000000 57190
Wed Sep 30 00:00:00 GMT 2015 ikekastner Northern red oak Quercus rubra Full Flower 39.200000000000000 -86.500000000000000 57191
Wed Sep 30 00:00:00 GMT 2015 ikekastner Northern red oak Quercus rubra First Ripe Fruit 39.200000000000000 -86.500000000000000 57192
Sun Oct 18 00:00:00 GMT 2015 ikekastner Northern red oak Quercus rubra Full Fruiting 39.200000000000000 -86.500000000000000 57193
Sun Oct 18 00:00:00 GMT 2015 ikekastner Northern red oak Quercus rubra 50% Color 39.200000000000000 -86.500000000000000 57194
Wed Sep 30 00:00:00 GMT 2015 ikekastner Northern red oak Quercus rubra Bud Burst 39.200000000000000 -86.500000000000000 57195
Sun Oct 18 00:00:00 GMT 2015 ikekastner Northern red oak Quercus rubra 50% Leaf Fall 39.200000000000000 -86.500000000000000 57196
Wed Sep 30 00:00:00 GMT 2015 ikekastner Northern red oak Quercus rubra First Leaf 39.200000000000000 -86.500000000000000 57197
Wed Sep 30 00:00:00 GMT 2015 ikekastner Northern red oak Quercus rubra All Leaves Unfolded 39.200000000000000 -86.500000000000000 57198
Wed Sep 30 00:00:00 GMT 2015 ikekastner Northern red oak Quercus rubra First Flower 39.200000000000000 -86.500000000000000 57199
Wed Sep 30 00:00:00 GMT 2015 ikekastner Northern red oak Quercus rubra Full Flower 39.200000000000000 -86.500000000000000 57200
Wed Sep 30 00:00:00 GMT 2015 ikekastner Northern red oak Quercus rubra First Ripe Fruit 39.200000000000000 -86.500000000000000 57201
Sun Oct 18 00:00:00 GMT 2015 ikekastner Northern red oak Quercus rubra Full Fruiting 39.200000000000000 -86.500000000000000 57202
Sun Oct 18 00:00:00 GMT 2015 ikekastner Northern red oak Quercus rubra 50% Color 39.200000000000000 -86.500000000000000 57203
Sun Oct 18 00:00:00 GMT 2015 ikekastner Northern red oak Quercus rubra 50% Leaf Fall 39.200000000000000 -86.500000000000000 57204
Tue Oct 20 00:00:00 GMT 2015 kelseynewhouse7 Northern red oak Quercus rubra 50% Color 40.000000000000000 -100.000000000000000 57365
Tue Oct 27 00:00:00 GMT 2015 kelseynewhouse7 Northern red oak Quercus rubra 50% Leaf Fall 40.000000000000000 -100.000000000000000 57366
Wed Nov 18 00:00:00 GMT 2015 omaxey Northern red oak Quercus rubra Leaves Unfolding (Late) 39.165330000000000 -86.526390000000000 57430
Wed Nov 18 00:00:00 GMT 2015 omaxey Northern red oak Quercus rubra Leaves Changing Color (Late) 39.165330000000000 -86.526390000000000 57431
Wed Nov 18 00:00:00 GMT 2015 omaxey Northern red oak Quercus rubra Leaves Dropping (Late) 39.165330000000000 -86.526390000000000 57432
Wed Nov 18 00:00:00 GMT 2015 omaxey Northern red oak Quercus rubra Flowers (None) 39.165330000000000 -86.526390000000000 57433
Wed Nov 18 00:00:00 GMT 2015 omaxey Northern red oak Quercus rubra Fruit (None) 39.165330000000000 -86.526390000000000 57434
Thu Oct 08 00:00:00 GMT 2015 mmeril Northern red oak Quercus rubra 50% Color 40.000000000000000 -100.000000000000000 57524
Tue Oct 20 00:00:00 GMT 2015 mmeril Northern red oak Quercus rubra 50% Leaf Fall 40.000000000000000 -100.000000000000000 57525
Tue Oct 13 00:00:00 GMT 2015 sjallal Northern red oak Quercus rubra 50% Color 39.164391000000000 -86.517462000000000 57584
Thu Nov 05 00:00:00 GMT 2015 sjallal Northern red oak Quercus rubra 50% Leaf Fall 39.164391000000000 -86.517462000000000 57585
Tue Feb 07 00:00:00 GMT 2017 MBGYouthandFamily Northern red oak Quercus rubra Leaves Unfolding (None) 38.613425100000000 -90.258645600000000 74794
Tue Feb 07 00:00:00 GMT 2017 MBGYouthandFamily Northern red oak Quercus rubra Leaves Changing Color (None) 38.613425100000000 -90.258645600000000 74795
Tue Feb 07 00:00:00 GMT 2017 MBGYouthandFamily Northern red oak Quercus rubra Leaves Dropping (None) 38.613425100000000 -90.258645600000000 74796
Tue Feb 07 00:00:00 GMT 2017 MBGYouthandFamily Northern red oak Quercus rubra Flowers (None) 38.613425100000000 -90.258645600000000 74797
Tue Feb 07 00:00:00 GMT 2017 MBGYouthandFamily Northern red oak Quercus rubra Fruit (None) 38.613425100000000 -90.258645600000000 74798
Fri Mar 17 00:00:00 GMT 2017 MBGYouthandFamily Northern red oak Quercus rubra Leaves Unfolding (None) 38.613425100000000 -90.258645600000000 75605
Fri Mar 17 00:00:00 GMT 2017 MBGYouthandFamily Northern red oak Quercus rubra Leaves Changing Color (None) 38.613425100000000 -90.258645600000000 75606
Fri Mar 17 00:00:00 GMT 2017 MBGYouthandFamily Northern red oak Quercus rubra Leaves Dropping (None) 38.613425100000000 -90.258645600000000 75607
Fri Mar 17 00:00:00 GMT 2017 MBGYouthandFamily Northern red oak Quercus rubra Flowers (None) 38.613425100000000 -90.258645600000000 75608
Fri Mar 17 00:00:00 GMT 2017 MBGYouthandFamily Northern red oak Quercus rubra Fruit (None) 38.613425100000000 -90.258645600000000 75609

*All downloadable materials require the free Adobe Reader.